Wetterdaten: Mittwoch, 31.03.2010
Datum Zeit Temp. Innen Temp. Aussen UV X Diff Temp. Feuchte Inne Feuchte Auss Sonnenschein Luftdruck Regen ab 0,1 Wind Sonnenschein Windben
31.03.2010 00:00 16,1 C 6,5 C 0,0 UV-I 0,0 C 51 % 83 % 0 % 996,8 hPa 0,0 l/m 10,4 km/h (2 Bft) 0 min 7,2 km/h (2 Bft)
31.03.2010 00:02 16,1 C 6,4 C 0,0 UV-I 0,0 C 51 % 83 % 0 % 996,8 hPa 0,0 l/m 10,0 km/h (2 Bft) 0 min 8,2 km/h (2 Bft)
31.03.2010 00:04 16,1 C 6,4 C 0,0 UV-I 0,0 C 51 % 83 % 0 % 996,8 hPa 0,0 l/m 10,0 km/h (2 Bft) 0 min 8,2 km/h (2 Bft)
31.03.2010 00:06 16,1 C 6,4 C 0,0 UV-I 0,0 C 51 % 83 % 0 % 996,8 hPa 0,0 l/m 10,4 km/h (2 Bft) 0 min 3,6 km/h (1 Bft)
31.03.2010 00:08 16,1 C 6,4 C 0,0 UV-I 0,0 C 51 % 83 % 0 % 996,8 hPa 0,0 l/m 9,2 km/h (2 Bft) 0 min 4,1 km/h (1 Bft)
31.03.2010 00:10 16,1 C 6,4 C 0,0 UV-I 0,0 C 51 % 83 % 0 % 996,8 hPa 0,0 l/m 8,8 km/h (2 Bft) 0 min 9,9 km/h (2 Bft)
31.03.2010 00:12 16,1 C 6,3 C 0,0 UV-I 0,0 C 51 % 83 % 0 % 997,0 hPa 0,0 l/m 8,4 km/h (2 Bft) 0 min 7,2 km/h (2 Bft)
31.03.2010 00:14 15,9 C 6,3 C 0,0 UV-I 0,0 C 51 % 84 % 0 % 997,0 hPa 0,0 l/m 8,8 km/h (2 Bft) 0 min 5,1 km/h (1 Bft)
31.03.2010 00:16 15,9 C 6,3 C 0,0 UV-I 0,0 C 51 % 84 % 0 % 997,0 hPa 0,0 l/m 7,6 km/h (2 Bft) 0 min 4,8 km/h (1 Bft)
31.03.2010 00:18 16,1 C 6,3 C 0,0 UV-I 0,0 C 51 % 84 % 0 % 997,0 hPa 0,0 l/m 8,8 km/h (2 Bft) 0 min 7,5 km/h (2 Bft)
31.03.2010 00:20 15,9 C 6,2 C 0,0 UV-I 0,0 C 51 % 84 % 0 % 997,0 hPa 0,0 l/m 9,6 km/h (2 Bft) 0 min 13,0 km/h (3 Bft)
31.03.2010 00:22 15,9 C 6,2 C 0,0 UV-I 0,0 C 51 % 83 % 0 % 997,0 hPa 0,0 l/m 9,6 km/h (2 Bft) 0 min 6,3 km/h (2 Bft)
31.03.2010 00:24 15,9 C 6,3 C 0,0 UV-I 0,0 C 51 % 84 % 0 % 997,0 hPa 0,0 l/m 9,2 km/h (2 Bft) 0 min 4,3 km/h (1 Bft)
31.03.2010 00:26 15,9 C 6,3 C 0,0 UV-I 0,0 C 51 % 83 % 0 % 997,0 hPa 0,0 l/m 9,2 km/h (2 Bft) 0 min 8,2 km/h (2 Bft)
31.03.2010 00:28 15,9 C 6,2 C 0,0 UV-I 0,0 C 51 % 84 % 0 % 997,0 hPa 0,0 l/m 9,2 km/h (2 Bft) 0 min 10,1 km/h (2 Bft)
31.03.2010 00:30 15,9 C 6,1 C 0,0 UV-I 0,0 C 51 % 84 % 0 % 997,0 hPa 0,0 l/m 9,6 km/h (2 Bft) 0 min 14,7 km/h (3 Bft)
31.03.2010 00:32 16,0 C 6,1 C 0,0 UV-I 0,0 C 51 % 84 % 0 % 997,1 hPa 0,0 l/m 9,2 km/h (2 Bft) 0 min 5,1 km/h (1 Bft)
31.03.2010 00:34 16,0 C 6,1 C 0,0 UV-I 0,0 C 51 % 84 % 0 % 997,1 hPa 0,0 l/m 8,8 km/h (2 Bft) 0 min 3,8 km/h (1 Bft)
31.03.2010 00:36 16,0 C 6,1 C 0,0 UV-I 0,0 C 51 % 84 % 0 % 997,1 hPa 0,0 l/m 8,8 km/h (2 Bft) 0 min 7,5 km/h (2 Bft)
31.03.2010 00:38 16,0 C 6,1 C 0,0 UV-I 0,0 C 51 % 84 % 0 % 997,1 hPa 0,0 l/m 8,8 km/h (2 Bft) 0 min 9,9 km/h (2 Bft)
31.03.2010 00:42 16,0 C 6,0 C 0,0 UV-I 0,0 C 51 % 84 % 0 % 997,1 hPa 0,0 l/m 8,0 km/h (2 Bft) 0 min 7,7 km/h (2 Bft)
31.03.2010 00:44 16,0 C 6,0 C 0,0 UV-I 0,0 C 51 % 84 % 0 % 997,1 hPa 0,0 l/m 7,6 km/h (2 Bft) 0 min 7,7 km/h (2 Bft)
31.03.2010 00:46 16,0 C 6,0 C 0,0 UV-I 0,0 C 51 % 84 % 0 % 997,1 hPa 0,0 l/m 8,4 km/h (2 Bft) 0 min 14,7 km/h (3 Bft)
31.03.2010 00:48 16,0 C 6,1 C 0,0 UV-I 0,0 C 51 % 84 % 0 % 997,1 hPa 0,0 l/m 7,6 km/h (2 Bft) 0 min 3,4 km/h (1 Bft)
31.03.2010 00:50 16,0 C 6,0 C 0,0 UV-I 0,0 C 51 % 84 % 0 % 997,1 hPa 0,0 l/m 6,8 km/h (2 Bft) 0 min 3,8 km/h (1 Bft)
31.03.2010 00:52 16,0 C 6,0 C 0,0 UV-I 0,0 C 51 % 84 % 0 % 997,2 hPa 0,0 l/m 7,6 km/h (2 Bft) 0 min 20,0 km/h (4 Bft)
31.03.2010 00:54 16,0 C 6,0 C 0,0 UV-I 0,0 C 51 % 84 % 0 % 997,2 hPa 0,0 l/m 7,6 km/h (2 Bft) 0 min 7,5 km/h (2 Bft)
31.03.2010 00:56 16,0 C 6,0 C 0,0 UV-I 0,0 C 51 % 84 % 0 % 997,2 hPa 0,0 l/m 8,0 km/h (2 Bft) 0 min 7,2 km/h (2 Bft)
31.03.2010 01:00 16,0 C 6,0 C 0,0 UV-I 0,0 C 51 % 84 % 0 % 997,2 hPa 0,0 l/m 8,4 km/h (2 Bft) 0 min 20,0 km/h (4 Bft)
31.03.2010 01:02 15,8 C 5,9 C 0,0 UV-I 0,0 C 51 % 84 % 0 % 997,2 hPa 0,0 l/m 9,6 km/h (2 Bft) 0 min 8,2 km/h (2 Bft)
31.03.2010 01:04 15,8 C 6,0 C 0,0 UV-I 0,0 C 51 % 84 % 0 % 997,2 hPa 0,0 l/m 8,8 km/h (2 Bft) 0 min 4,1 km/h (1 Bft)
31.03.2010 01:06 15,8 C 5,9 C 0,0 UV-I 0,0 C 51 % 84 % 0 % 997,2 hPa 0,0 l/m 8,0 km/h (2 Bft) 0 min 4,8 km/h (1 Bft)
31.03.2010 01:08 15,9 C 5,9 C 0,0 UV-I 0,0 C 51 % 84 % 0 % 997,2 hPa 0,0 l/m 7,6 km/h (2 Bft) 0 min 4,8 km/h (1 Bft)
31.03.2010 01:10 15,9 C 5,9 C 0,0 UV-I 0,0 C 51 % 83 % 0 % 997,2 hPa 0,0 l/m 6,8 km/h (2 Bft) 0 min 2,9 km/h (1 Bft)
31.03.2010 01:14 15,9 C 5,9 C 0,0 UV-I 0,0 C 51 % 84 % 0 % 997,2 hPa 0,0 l/m 6,8 km/h (2 Bft) 0 min 7,9 km/h (2 Bft)
31.03.2010 01:18 15,9 C 5,9 C 0,0 UV-I 0,0 C 51 % 83 % 0 % 997,2 hPa 0,0 l/m 6,0 km/h (2 Bft) 0 min 2,6 km/h (1 Bft)
31.03.2010 01:22 15,9 C 5,9 C 0,0 UV-I 0,0 C 51 % 83 % 0 % 997,2 hPa 0,0 l/m 5,2 km/h (1 Bft) 0 min 2,6 km/h (1 Bft)
31.03.2010 01:24 15,8 C 5,8 C 0,0 UV-I 0,0 C 51 % 83 % 0 % 997,2 hPa 0,0 l/m 3,6 km/h (1 Bft) 0 min 11,8 km/h (2 Bft)
31.03.2010 01:26 15,9 C 5,9 C 0,0 UV-I 0,0 C 51 % 83 % 0 % 997,2 hPa 0,0 l/m 3,2 km/h (1 Bft) 0 min 4,1 km/h (1 Bft)
31.03.2010 01:28 15,8 C 5,9 C 0,0 UV-I 0,0 C 51 % 83 % 0 % 997,2 hPa 0,0 l/m 3,2 km/h (1 Bft) 0 min 2,6 km/h (1 Bft)
31.03.2010 01:30 15,8 C 5,8 C 0,0 UV-I 0,0 C 51 % 84 % 0 % 997,2 hPa 0,0 l/m 3,6 km/h (1 Bft) 0 min 5,3 km/h (1 Bft)
31.03.2010 01:34 15,8 C 5,7 C 0,0 UV-I 0,0 C 51 % 84 % 0 % 997,6 hPa 0,0 l/m 4,0 km/h (1 Bft) 0 min 5,1 km/h (1 Bft)
31.03.2010 01:36 15,8 C 5,7 C 0,0 UV-I 0,0 C 51 % 84 % 0 % 997,6 hPa 0,0 l/m 3,6 km/h (1 Bft) 0 min 0,0 km/h (0 Bft)
31.03.2010 01:38 15,8 C 5,7 C 0,0 UV-I 0,0 C 51 % 84 % 0 % 997,6 hPa 0,0 l/m 5,2 km/h (1 Bft) 0 min 7,2 km/h (2 Bft)
31.03.2010 01:40 15,8 C 5,7 C 0,0 UV-I 0,0 C 51 % 84 % 0 % 997,6 hPa 0,0 l/m 5,2 km/h (1 Bft) 0 min 2,6 km/h (1 Bft)
31.03.2010 01:42 15,8 C 5,7 C 0,0 UV-I 0,0 C 51 % 84 % 0 % 997,6 hPa 0,0 l/m 5,6 km/h (1 Bft) 0 min 6,3 km/h (2 Bft)
31.03.2010 01:44 15,8 C 5,6 C 0,0 UV-I 0,0 C 51 % 84 % 0 % 997,6 hPa 0,0 l/m 5,6 km/h (1 Bft) 0 min 4,3 km/h (1 Bft)
31.03.2010 01:46 15,8 C 5,6 C 0,0 UV-I 0,0 C 51 % 84 % 0 % 997,6 hPa 0,0 l/m 4,8 km/h (1 Bft) 0 min 2,9 km/h (1 Bft)
31.03.2010 01:48 15,8 C 5,6 C 0,0 UV-I 0,0 C 51 % 84 % 0 % 997,6 hPa 0,0 l/m 4,8 km/h (1 Bft) 0 min 2,9 km/h (1 Bft)
31.03.2010 01:52 15,8 C 5,6 C 0,0 UV-I 0,0 C 51 % 84 % 0 % 997,4 hPa 0,0 l/m 4,8 km/h (1 Bft) 0 min 6,5 km/h (2 Bft)
31.03.2010 01:54 15,6 C 5,6 C 0,0 UV-I 0,0 C 51 % 84 % 0 % 997,4 hPa 0,0 l/m 5,6 km/h (1 Bft) 0 min 6,3 km/h (2 Bft)
31.03.2010 01:56 15,6 C 5,6 C 0,0 UV-I 0,0 C 51 % 84 % 0 % 997,4 hPa 0,0 l/m 5,2 km/h (1 Bft) 0 min 3,6 km/h (1 Bft)
31.03.2010 01:58 15,6 C 5,6 C 0,0 UV-I 0,0 C 51 % 84 % 0 % 997,4 hPa 0,0 l/m 6,0 km/h (2 Bft) 0 min 9,1 km/h (2 Bft)
31.03.2010 02:00 15,6 C 5,7 C 0,0 UV-I 0,0 C 51 % 84 % 0 % 997,4 hPa 0,0 l/m 6,8 km/h (2 Bft) 0 min 8,9 km/h (2 Bft)
31.03.2010 02:02 15,6 C 5,7 C 0,0 UV-I 0,0 C 51 % 84 % 0 % 997,4 hPa 0,0 l/m 7,2 km/h (2 Bft) 0 min 7,7 km/h (2 Bft)
31.03.2010 02:06 15,6 C 5,7 C 0,0 UV-I 0,0 C 51 % 84 % 0 % 997,4 hPa 0,0 l/m 9,2 km/h (2 Bft) 0 min 12,0 km/h (2 Bft)
31.03.2010 02:08 15,7 C 5,6 C 0,0 UV-I 0,0 C 51 % 84 % 0 % 997,4 hPa 0,0 l/m 8,8 km/h (2 Bft) 0 min 3,4 km/h (1 Bft)
31.03.2010 02:10 15,6 C 5,6 C 0,0 UV-I 0,0 C 51 % 84 % 0 % 997,4 hPa 0,0 l/m 9,2 km/h (2 Bft) 0 min 13,2 km/h (3 Bft)
31.03.2010 02:12 15,7 C 5,6 C 0,0 UV-I 0,0 C 51 % 84 % 0 % 997,6 hPa 0,0 l/m 9,6 km/h (2 Bft) 0 min 9,1 km/h (2 Bft)
31.03.2010 02:14 15,7 C 5,6 C 0,0 UV-I 0,0 C 51 % 84 % 0 % 997,6 hPa 0,0 l/m 8,8 km/h (2 Bft) 0 min 4,6 km/h (1 Bft)
31.03.2010 02:16 15,7 C 5,6 C 0,0 UV-I 0,0 C 51 % 84 % 0 % 997,6 hPa 0,0 l/m 8,4 km/h (2 Bft) 0 min 5,8 km/h (2 Bft)
31.03.2010 02:18 15,7 C 5,6 C 0,0 UV-I 0,0 C 51 % 84 % 0 % 997,6 hPa 0,0 l/m 6,4 km/h (2 Bft) 0 min 0,0 km/h (0 Bft)
31.03.2010 02:20 15,7 C 5,6 C 0,0 UV-I 0,0 C 51 % 84 % 0 % 997,6 hPa 0,0 l/m 6,0 km/h (2 Bft) 0 min 0,0 km/h (0 Bft)
31.03.2010 02:22 15,7 C 5,5 C 0,0 UV-I 0,0 C 51 % 84 % 0 % 997,6 hPa 0,0 l/m 4,8 km/h (1 Bft) 0 min 4,3 km/h (1 Bft)
31.03.2010 02:24 15,7 C 5,5 C 0,0 UV-I 0,0 C 51 % 84 % 0 % 997,6 hPa 0,0 l/m 3,6 km/h (1 Bft) 0 min 5,5 km/h (1 Bft)
31.03.2010 02:26 15,6 C 5,5 C 0,0 UV-I 0,0 C 51 % 84 % 0 % 997,6 hPa 0,0 l/m 4,0 km/h (1 Bft) 0 min 4,6 km/h (1 Bft)
31.03.2010 02:28 15,7 C 5,5 C 0,0 UV-I 0,0 C 51 % 84 % 0 % 997,6 hPa 0,0 l/m 4,8 km/h (1 Bft) 0 min 9,9 km/h (2 Bft)
31.03.2010 02:30 15,6 C 5,5 C 0,0 UV-I 0,0 C 51 % 84 % 0 % 997,6 hPa 0,0 l/m 5,6 km/h (1 Bft) 0 min 5,5 km/h (1 Bft)
31.03.2010 02:32 15,7 C 5,5 C 0,0 UV-I 0,0 C 51 % 84 % 0 % 997,5 hPa 0,0 l/m 6,8 km/h (2 Bft) 0 min 5,5 km/h (1 Bft)
31.03.2010 02:34 15,6 C 5,4 C 0,0 UV-I 0,0 C 51 % 84 % 0 % 997,5 hPa 0,0 l/m 7,6 km/h (2 Bft) 0 min 5,1 km/h (1 Bft)
31.03.2010 02:36 15,6 C 5,4 C 0,0 UV-I 0,0 C 51 % 84 % 0 % 997,5 hPa 0,0 l/m 8,4 km/h (2 Bft) 0 min 9,6 km/h (2 Bft)
31.03.2010 02:38 15,7 C 5,5 C 0,0 UV-I 0,0 C 51 % 84 % 0 % 997,5 hPa 0,0 l/m 8,4 km/h (2 Bft) 0 min 5,5 km/h (1 Bft)
31.03.2010 02:40 15,7 C 5,5 C 0,0 UV-I 0,0 C 51 % 84 % 0 % 997,5 hPa 0,0 l/m 10,0 km/h (2 Bft) 0 min 7,5 km/h (2 Bft)
31.03.2010 02:42 15,6 C 5,5 C 0,0 UV-I 0,0 C 51 % 84 % 0 % 997,5 hPa 0,0 l/m 10,4 km/h (2 Bft) 0 min 5,5 km/h (1 Bft)
31.03.2010 02:44 15,6 C 5,5 C 0,0 UV-I 0,0 C 51 % 84 % 0 % 997,5 hPa 0,0 l/m 10,8 km/h (2 Bft) 0 min 16,1 km/h (3 Bft)
31.03.2010 02:46 15,6 C 5,5 C 0,0 UV-I 0,0 C 51 % 84 % 0 % 997,5 hPa 0,0 l/m 12,4 km/h (3 Bft) 0 min 12,5 km/h (3 Bft)
31.03.2010 02:48 15,6 C 5,5 C 0,0 UV-I 0,0 C 51 % 84 % 0 % 997,5 hPa 0,0 l/m 12,4 km/h (3 Bft) 0 min 5,3 km/h (1 Bft)
31.03.2010 02:50 15,6 C 5,5 C 0,0 UV-I 0,0 C 51 % 84 % 0 % 997,5 hPa 0,0 l/m 11,2 km/h (2 Bft) 0 min 3,8 km/h (1 Bft)
31.03.2010 02:52 15,6 C 5,5 C 0,0 UV-I 0,0 C 51 % 84 % 0 % 997,4 hPa 0,0 l/m 11,2 km/h (2 Bft) 0 min 10,1 km/h (2 Bft)
31.03.2010 02:54 15,6 C 5,5 C 0,0 UV-I 0,0 C 51 % 84 % 0 % 997,4 hPa 0,0 l/m 11,2 km/h (2 Bft) 0 min 7,2 km/h (2 Bft)
31.03.2010 02:56 15,6 C 5,5 C 0,0 UV-I 0,0 C 51 % 84 % 0 % 997,4 hPa 0,0 l/m 10,0 km/h (2 Bft) 0 min 14,2 km/h (3 Bft)
31.03.2010 02:58 15,6 C 5,5 C 0,0 UV-I 0,0 C 51 % 84 % 0 % 997,4 hPa 0,0 l/m 9,2 km/h (2 Bft) 0 min 6,5 km/h (2 Bft)
31.03.2010 03:00 15,6 C 5,5 C 0,0 UV-I 0,0 C 51 % 84 % 0 % 997,4 hPa 0,0 l/m 8,8 km/h (2 Bft) 0 min 4,1 km/h (1 Bft)
31.03.2010 03:02 15,6 C 5,5 C 0,0 UV-I 0,0 C 51 % 84 % 0 % 997,4 hPa 0,0 l/m 9,2 km/h (2 Bft) 0 min 8,7 km/h (2 Bft)
31.03.2010 03:04 15,6 C 5,5 C 0,0 UV-I 0,0 C 51 % 84 % 0 % 997,4 hPa 0,0 l/m 9,2 km/h (2 Bft) 0 min 8,7 km/h (2 Bft)
31.03.2010 03:06 15,6 C 5,5 C 0,0 UV-I 0,0 C 51 % 84 % 0 % 997,4 hPa 0,0 l/m 7,6 km/h (2 Bft) 0 min 6,0 km/h (2 Bft)
31.03.2010 03:10 15,6 C 5,5 C 0,0 UV-I 0,0 C 51 % 84 % 0 % 997,4 hPa 0,0 l/m 8,0 km/h (2 Bft) 0 min 8,7 km/h (2 Bft)
31.03.2010 03:12 15,6 C 5,5 C 0,0 UV-I 0,0 C 51 % 84 % 0 % 997,6 hPa 0,0 l/m 8,0 km/h (2 Bft) 0 min 2,4 km/h (1 Bft)
31.03.2010 03:14 15,6 C 5,5 C 0,0 UV-I 0,0 C 51 % 84 % 0 % 997,6 hPa 0,0 l/m 8,4 km/h (2 Bft) 0 min 10,1 km/h (2 Bft)
31.03.2010 03:18 15,6 C 5,4 C 0,0 UV-I 0,0 C 51 % 83 % 0 % 997,6 hPa 0,0 l/m 9,2 km/h (2 Bft) 0 min 9,6 km/h (2 Bft)
31.03.2010 03:20 15,6 C 5,5 C 0,0 UV-I 0,0 C 51 % 83 % 0 % 997,6 hPa 0,0 l/m 9,2 km/h (2 Bft) 0 min 22,9 km/h (4 Bft)
31.03.2010 03:22 15,6 C 5,5 C 0,0 UV-I 0,0 C 51 % 83 % 0 % 997,6 hPa 0,0 l/m 10,0 km/h (2 Bft) 0 min 15,6 km/h (3 Bft)
31.03.2010 03:24 15,6 C 5,5 C 0,0 UV-I 0,0 C 51 % 83 % 0 % 997,6 hPa 0,0 l/m 10,4 km/h (2 Bft) 0 min 12,5 km/h (3 Bft)
31.03.2010 03:28 15,6 C 5,5 C 0,0 UV-I 0,0 C 51 % 83 % 0 % 997,6 hPa 0,0 l/m 8,8 km/h (2 Bft) 0 min 17,3 km/h (3 Bft)
31.03.2010 03:30 15,6 C 5,5 C 0,0 UV-I 0,0 C 51 % 83 % 0 % 997,6 hPa 0,0 l/m 9,6 km/h (2 Bft) 0 min 7,9 km/h (2 Bft)
31.03.2010 03:32 15,6 C 5,5 C 0,0 UV-I 0,0 C 51 % 83 % 0 % 997,7 hPa 0,0 l/m 9,2 km/h (2 Bft) 0 min 6,5 km/h (2 Bft)
31.03.2010 03:34 15,6 C 5,5 C 0,0 UV-I 0,0 C 51 % 82 % 0 % 997,7 hPa 0,0 l/m 9,2 km/h (2 Bft) 0 min 16,4 km/h (3 Bft)
31.03.2010 03:36 15,6 C 5,5 C 0,0 UV-I 0,0 C 51 % 82 % 0 % 997,7 hPa 0,0 l/m 10,4 km/h (2 Bft) 0 min 12,5 km/h (3 Bft)
31.03.2010 03:38 15,6 C 5,6 C 0,0 UV-I 0,0 C 51 % 82 % 0 % 997,7 hPa 0,0 l/m 10,4 km/h (2 Bft) 0 min 6,0 km/h (2 Bft)
31.03.2010 03:42 15,6 C 5,7 C 0,0 UV-I 0,0 C 50 % 82 % 0 % 997,7 hPa 0,0 l/m 10,4 km/h (2 Bft) 0 min 23,1 km/h (4 Bft)
31.03.2010 03:44 15,6 C 5,6 C 0,0 UV-I 0,0 C 50 % 81 % 0 % 997,7 hPa 0,0 l/m 10,8 km/h (2 Bft) 0 min 5,3 km/h (1 Bft)
31.03.2010 03:46 15,6 C 5,6 C 0,0 UV-I 0,0 C 50 % 81 % 0 % 997,7 hPa 0,0 l/m 10,4 km/h (2 Bft) 0 min 3,8 km/h (1 Bft)
31.03.2010 03:48 15,6 C 5,6 C 0,0 UV-I 0,0 C 50 % 81 % 0 % 997,7 hPa 0,0 l/m 9,6 km/h (2 Bft) 0 min 4,1 km/h (1 Bft)
31.03.2010 03:50 15,6 C 5,6 C 0,0 UV-I 0,0 C 50 % 81 % 0 % 997,7 hPa 0,0 l/m 10,0 km/h (2 Bft) 0 min 12,3 km/h (3 Bft)
31.03.2010 03:52 15,6 C 5,6 C 0,0 UV-I 0,0 C 50 % 81 % 0 % 997,4 hPa 0,0 l/m 9,2 km/h (2 Bft) 0 min 7,2 km/h (2 Bft)
31.03.2010 03:54 15,6 C 5,6 C 0,0 UV-I 0,0 C 50 % 81 % 0 % 997,4 hPa 0,0 l/m 9,6 km/h (2 Bft) 0 min 8,4 km/h (2 Bft)
31.03.2010 03:56 15,6 C 5,7 C 0,0 UV-I 0,0 C 50 % 81 % 0 % 997,4 hPa 0,0 l/m 9,6 km/h (2 Bft) 0 min 4,8 km/h (1 Bft)
31.03.2010 03:58 15,6 C 5,7 C 0,0 UV-I 0,0 C 50 % 81 % 0 % 997,4 hPa 0,0 l/m 9,6 km/h (2 Bft) 0 min 9,6 km/h (2 Bft)
31.03.2010 04:00 15,6 C 5,7 C 0,0 UV-I 0,0 C 50 % 81 % 0 % 997,4 hPa 0,0 l/m 9,2 km/h (2 Bft) 0 min 10,6 km/h (2 Bft)
31.03.2010 04:02 15,6 C 5,7 C 0,0 UV-I 0,0 C 50 % 81 % 0 % 997,4 hPa 0,0 l/m 9,2 km/h (2 Bft) 0 min 6,5 km/h (2 Bft)
31.03.2010 04:04 15,6 C 5,7 C 0,0 UV-I 0,0 C 50 % 81 % 0 % 997,4 hPa 0,0 l/m 8,8 km/h (2 Bft) 0 min 12,0 km/h (2 Bft)
31.03.2010 04:06 15,4 C 5,7 C 0,0 UV-I 0,0 C 50 % 81 % 0 % 997,4 hPa 0,0 l/m 9,2 km/h (2 Bft) 0 min 9,9 km/h (2 Bft)
31.03.2010 04:08 15,4 C 5,6 C 0,0 UV-I 0,0 C 50 % 81 % 0 % 997,4 hPa 0,0 l/m 8,4 km/h (2 Bft) 0 min 7,2 km/h (2 Bft)
31.03.2010 04:10 15,4 C 5,7 C 0,0 UV-I 0,0 C 50 % 81 % 0 % 997,4 hPa 0,0 l/m 8,8 km/h (2 Bft) 0 min 8,9 km/h (2 Bft)
31.03.2010 04:13 15,4 C 5,6 C 0,0 UV-I 0,0 C 50 % 81 % 0 % 997,3 hPa 0,0 l/m 8,4 km/h (2 Bft) 0 min 7,2 km/h (2 Bft)
31.03.2010 04:18 15,4 C 5,6 C 0,0 UV-I 0,0 C 50 % 81 % 0 % 997,3 hPa 0,0 l/m 6,0 km/h (2 Bft) 0 min 0,0 km/h (0 Bft)
31.03.2010 04:19 15,4 C 5,6 C 0,0 UV-I 0,0 C 50 % 81 % 0 % 997,3 hPa 0,0 l/m 6,0 km/h (2 Bft) 0 min 0,0 km/h (0 Bft)
31.03.2010 04:22 15,4 C 5,6 C 0,0 UV-I 0,0 C 50 % 82 % 0 % 997,3 hPa 0,0 l/m 5,2 km/h (1 Bft) 0 min 3,4 km/h (1 Bft)
31.03.2010 04:24 15,4 C 5,6 C 0,0 UV-I 0,0 C 50 % 82 % 0 % 997,3 hPa 0,0 l/m 4,8 km/h (1 Bft) 0 min 4,3 km/h (1 Bft)
31.03.2010 04:26 15,4 C 5,6 C 0,0 UV-I 0,0 C 50 % 82 % 0 % 997,3 hPa 0,0 l/m 4,4 km/h (1 Bft) 0 min 0,0 km/h (0 Bft)
31.03.2010 04:28 15,5 C 5,7 C 0,0 UV-I 0,0 C 50 % 82 % 0 % 997,3 hPa 0,0 l/m 4,4 km/h (1 Bft) 0 min 8,4 km/h (2 Bft)
31.03.2010 04:30 15,4 C 5,7 C 0,0 UV-I 0,0 C 50 % 82 % 0 % 997,3 hPa 0,0 l/m 4,8 km/h (1 Bft) 0 min 10,3 km/h (2 Bft)
31.03.2010 04:32 15,4 C 5,6 C 0,0 UV-I 0,0 C 50 % 82 % 0 % 997,4 hPa 0,0 l/m 5,6 km/h (1 Bft) 0 min 6,5 km/h (2 Bft)
31.03.2010 04:34 15,4 C 5,7 C 0,0 UV-I 0,0 C 50 % 82 % 0 % 997,4 hPa 0,0 l/m 6,4 km/h (2 Bft) 0 min 9,1 km/h (2 Bft)
31.03.2010 04:36 15,5 C 5,7 C 0,0 UV-I 0,0 C 50 % 82 % 0 % 997,4 hPa 0,0 l/m 6,8 km/h (2 Bft) 0 min 5,1 km/h (1 Bft)
31.03.2010 04:38 15,5 C 5,7 C 0,0 UV-I 0,0 C 50 % 82 % 0 % 997,4 hPa 0,0 l/m 6,4 km/h (2 Bft) 0 min 3,8 km/h (1 Bft)
31.03.2010 04:40 15,5 C 5,7 C 0,0 UV-I 0,0 C 50 % 82 % 0 % 997,4 hPa 0,0 l/m 5,6 km/h (1 Bft) 0 min 4,3 km/h (1 Bft)
31.03.2010 04:42 15,5 C 5,7 C 0,0 UV-I 0,0 C 50 % 82 % 0 % 997,4 hPa 0,0 l/m 5,2 km/h (1 Bft) 0 min 7,9 km/h (2 Bft)
31.03.2010 04:44 15,5 C 5,7 C 0,0 UV-I 0,0 C 50 % 82 % 0 % 997,4 hPa 0,0 l/m 4,8 km/h (1 Bft) 0 min 4,6 km/h (1 Bft)
31.03.2010 04:46 15,5 C 5,7 C 0,0 UV-I 0,0 C 50 % 82 % 0 % 997,4 hPa 0,0 l/m 4,8 km/h (1 Bft) 0 min 4,1 km/h (1 Bft)
31.03.2010 04:48 15,5 C 5,7 C 0,0 UV-I 0,0 C 50 % 82 % 0 % 997,4 hPa 0,0 l/m 4,8 km/h (1 Bft) 0 min 5,1 km/h (1 Bft)
31.03.2010 04:50 15,5 C 5,7 C 0,0 UV-I 0,0 C 50 % 83 % 0 % 997,4 hPa 0,0 l/m 6,0 km/h (2 Bft) 0 min 7,2 km/h (2 Bft)
31.03.2010 04:52 15,5 C 5,7 C 0,0 UV-I 0,0 C 50 % 83 % 0 % 997,1 hPa 0,0 l/m 6,4 km/h (2 Bft) 0 min 0,0 km/h (0 Bft)
31.03.2010 04:54 15,5 C 5,7 C 0,0 UV-I 0,0 C 50 % 83 % 0 % 997,1 hPa 0,0 l/m 6,4 km/h (2 Bft) 0 min 3,1 km/h (1 Bft)
31.03.2010 04:56 15,5 C 5,7 C 0,0 UV-I 0,0 C 50 % 83 % 0 % 997,1 hPa 0,0 l/m 6,0 km/h (2 Bft) 0 min 2,9 km/h (1 Bft)
31.03.2010 04:58 15,3 C 5,7 C 0,0 UV-I 0,0 C 50 % 83 % 0 % 997,1 hPa 0,0 l/m 5,6 km/h (1 Bft) 0 min 0,0 km/h (0 Bft)
31.03.2010 05:00 15,3 C 5,7 C 0,0 UV-I 0,0 C 50 % 83 % 0 % 997,1 hPa 0,0 l/m 6,0 km/h (2 Bft) 0 min 7,5 km/h (2 Bft)
31.03.2010 05:02 15,3 C 5,7 C 0,0 UV-I 0,0 C 50 % 83 % 0 % 997,1 hPa 0,0 l/m 5,6 km/h (1 Bft) 0 min 6,0 km/h (2 Bft)
31.03.2010 05:04 15,3 C 5,7 C 0,0 UV-I 0,0 C 50 % 83 % 0 % 997,1 hPa 0,0 l/m 5,2 km/h (1 Bft) 0 min 0,0 km/h (0 Bft)
31.03.2010 05:06 15,3 C 5,7 C 0,0 UV-I 0,0 C 50 % 83 % 0 % 997,1 hPa 0,0 l/m 5,6 km/h (1 Bft) 0 min 3,6 km/h (1 Bft)
31.03.2010 05:08 15,3 C 5,6 C 0,0 UV-I 0,0 C 50 % 83 % 0 % 997,1 hPa 0,0 l/m 6,4 km/h (2 Bft) 0 min 3,8 km/h (1 Bft)
31.03.2010 05:10 15,3 C 5,7 C 0,0 UV-I 0,0 C 50 % 83 % 0 % 997,1 hPa 0,0 l/m 6,8 km/h (2 Bft) 0 min 6,3 km/h (2 Bft)
31.03.2010 05:12 15,3 C 5,6 C 0,0 UV-I 0,0 C 50 % 83 % 0 % 997,0 hPa 0,0 l/m 7,6 km/h (2 Bft) 0 min 6,7 km/h (2 Bft)
31.03.2010 05:14 15,5 C 5,6 C 0,0 UV-I 0,0 C 50 % 83 % 0 % 997,0 hPa 0,0 l/m 7,6 km/h (2 Bft) 0 min 8,4 km/h (2 Bft)
31.03.2010 05:16 15,3 C 5,6 C 0,0 UV-I 0,0 C 50 % 83 % 0 % 997,0 hPa 0,0 l/m 9,2 km/h (2 Bft) 0 min 7,9 km/h (2 Bft)
31.03.2010 05:18 15,3 C 5,6 C 0,0 UV-I 0,0 C 51 % 83 % 0 % 997,0 hPa 0,0 l/m 9,6 km/h (2 Bft) 0 min 11,3 km/h (2 Bft)
31.03.2010 05:20 15,3 C 5,7 C 0,0 UV-I 0,0 C 50 % 83 % 0 % 997,0 hPa 0,0 l/m 10,0 km/h (2 Bft) 0 min 7,9 km/h (2 Bft)
31.03.2010 05:22 15,5 C 5,7 C 0,0 UV-I 0,0 C 51 % 83 % 0 % 997,0 hPa 0,0 l/m 9,6 km/h (2 Bft) 0 min 3,4 km/h (1 Bft)
31.03.2010 05:24 15,3 C 5,7 C 0,0 UV-I 0,0 C 51 % 83 % 0 % 997,0 hPa 0,0 l/m 10,0 km/h (2 Bft) 0 min 7,5 km/h (2 Bft)
31.03.2010 05:26 15,3 C 5,7 C 0,0 UV-I 0,0 C 51 % 83 % 0 % 997,0 hPa 0,0 l/m 9,6 km/h (2 Bft) 0 min 6,5 km/h (2 Bft)
31.03.2010 05:28 15,5 C 5,6 C 0,0 UV-I 0,0 C 51 % 83 % 0 % 997,0 hPa 0,0 l/m 9,2 km/h (2 Bft) 0 min 5,3 km/h (1 Bft)
31.03.2010 05:30 15,5 C 5,6 C 0,0 UV-I 0,0 C 51 % 83 % 0 % 997,0 hPa 0,0 l/m 9,2 km/h (2 Bft) 0 min 8,7 km/h (2 Bft)
31.03.2010 05:32 15,5 C 5,7 C 0,0 UV-I 0,0 C 51 % 83 % 0 % 997,2 hPa 0,0 l/m 9,2 km/h (2 Bft) 0 min 11,8 km/h (2 Bft)
31.03.2010 05:34 15,5 C 5,7 C 0,0 UV-I 0,0 C 51 % 83 % 0 % 997,2 hPa 0,0 l/m 9,6 km/h (2 Bft) 0 min 12,3 km/h (3 Bft)
31.03.2010 05:36 15,3 C 5,7 C 0,0 UV-I 0,0 C 51 % 83 % 0 % 997,2 hPa 0,0 l/m 9,6 km/h (2 Bft) 0 min 5,8 km/h (2 Bft)
31.03.2010 05:38 15,5 C 5,6 C 0,0 UV-I 0,0 C 51 % 84 % 0 % 997,2 hPa 0,0 l/m 9,2 km/h (2 Bft) 0 min 4,8 km/h (1 Bft)
31.03.2010 05:40 15,5 C 5,6 C 0,0 UV-I 0,0 C 51 % 84 % 0 % 997,2 hPa 0,0 l/m 10,0 km/h (2 Bft) 0 min 8,2 km/h (2 Bft)
31.03.2010 05:44 15,3 C 5,6 C 0,0 UV-I 0,0 C 51 % 84 % 0 % 997,2 hPa 0,0 l/m 10,4 km/h (2 Bft) 0 min 7,2 km/h (2 Bft)
31.03.2010 05:46 15,3 C 5,6 C 0,0 UV-I 0,0 C 51 % 84 % 0 % 997,2 hPa 0,0 l/m 10,8 km/h (2 Bft) 0 min 7,7 km/h (2 Bft)
31.03.2010 05:48 15,5 C 5,6 C 0,0 UV-I 0,0 C 51 % 84 % 0 % 997,2 hPa 0,0 l/m 11,2 km/h (2 Bft) 0 min 5,1 km/h (1 Bft)
31.03.2010 05:50 15,5 C 5,6 C 0,0 UV-I 0,0 C 51 % 84 % 0 % 997,2 hPa 0,0 l/m 10,8 km/h (2 Bft) 0 min 8,2 km/h (2 Bft)
31.03.2010 05:52 15,5 C 5,5 C 0,0 UV-I 0,0 C 51 % 84 % 0 % 997,1 hPa 0,0 l/m 12,0 km/h (2 Bft) 0 min 14,0 km/h (3 Bft)
31.03.2010 05:56 15,5 C 5,6 C 0,0 UV-I 0,0 C 51 % 84 % 0 % 997,1 hPa 0,0 l/m 13,3 km/h (3 Bft) 0 min 13,5 km/h (3 Bft)
31.03.2010 05:58 15,5 C 5,6 C 0,0 UV-I 0,0 C 51 % 84 % 0 % 997,1 hPa 0,0 l/m 13,7 km/h (3 Bft) 0 min 9,6 km/h (2 Bft)
31.03.2010 06:00 15,3 C 5,6 C 0,0 UV-I 0,0 C 51 % 84 % 0 % 997,1 hPa 0,0 l/m 13,7 km/h (3 Bft) 0 min 7,9 km/h (2 Bft)
31.03.2010 06:02 15,3 C 5,7 C 0,0 UV-I 0,0 C 51 % 84 % 0 % 997,1 hPa 0,0 l/m 12,8 km/h (3 Bft) 0 min 5,1 km/h (1 Bft)
31.03.2010 06:04 15,3 C 5,7 C 0,0 UV-I 0,0 C 51 % 84 % 0 % 997,1 hPa 0,0 l/m 12,8 km/h (3 Bft) 0 min 5,1 km/h (1 Bft)
31.03.2010 06:08 15,5 C 5,6 C 0,0 UV-I 0,0 C 51 % 84 % 0 % 997,1 hPa 0,0 l/m 10,0 km/h (2 Bft) 0 min 5,8 km/h (2 Bft)
31.03.2010 06:10 15,5 C 5,6 C 0,0 UV-I 0,0 C 51 % 84 % 0 % 997,1 hPa 0,0 l/m 8,4 km/h (2 Bft) 0 min 5,8 km/h (2 Bft)
31.03.2010 06:12 15,3 C 5,7 C 0,0 UV-I 0,0 C 51 % 83 % 0 % 997,1 hPa 0,0 l/m 7,6 km/h (2 Bft) 0 min 4,1 km/h (1 Bft)
31.03.2010 06:14 15,3 C 5,7 C 0,0 UV-I 0,0 C 51 % 83 % 0 % 997,1 hPa 0,0 l/m 6,8 km/h (2 Bft) 0 min 0,0 km/h (0 Bft)
31.03.2010 06:16 15,4 C 5,7 C 0,0 UV-I 0,0 C 51 % 83 % 0 % 997,1 hPa 0,0 l/m 6,0 km/h (2 Bft) 0 min 5,8 km/h (2 Bft)
31.03.2010 06:18 15,3 C 5,7 C 0,0 UV-I 0,0 C 51 % 83 % 0 % 997,1 hPa 0,0 l/m 4,8 km/h (1 Bft) 0 min 0,0 km/h (0 Bft)
31.03.2010 06:20 15,4 C 5,7 C 0,0 UV-I 0,0 C 51 % 83 % 0 % 997,1 hPa 0,0 l/m 4,0 km/h (1 Bft) 0 min 7,0 km/h (2 Bft)
31.03.2010 06:22 15,4 C 5,7 C 0,0 UV-I 0,0 C 51 % 83 % 0 % 997,1 hPa 0,0 l/m 3,6 km/h (1 Bft) 0 min 4,8 km/h (1 Bft)
31.03.2010 06:24 15,4 C 5,7 C 0,0 UV-I 0,0 C 51 % 83 % 0 % 997,1 hPa 0,0 l/m 3,2 km/h (1 Bft) 0 min 3,4 km/h (1 Bft)
31.03.2010 06:26 15,4 C 5,7 C 0,0 UV-I 0,0 C 51 % 83 % 0 % 997,1 hPa 0,0 l/m 3,6 km/h (1 Bft) 0 min 4,8 km/h (1 Bft)
31.03.2010 06:30 15,4 C 5,7 C 0,0 UV-I 0,0 C 51 % 83 % 0 % 997,1 hPa 0,0 l/m 5,2 km/h (1 Bft) 0 min 6,0 km/h (2 Bft)
31.03.2010 06:32 15,4 C 5,8 C 0,0 UV-I 0,0 C 51 % 83 % 0 % 997,1 hPa 0,0 l/m 5,6 km/h (1 Bft) 0 min 6,3 km/h (2 Bft)
31.03.2010 06:34 15,4 C 5,8 C 0,0 UV-I 0,0 C 51 % 83 % 0 % 997,1 hPa 0,0 l/m 6,8 km/h (2 Bft) 0 min 5,5 km/h (1 Bft)
31.03.2010 06:36 15,4 C 5,9 C 0,0 UV-I 0,0 C 51 % 83 % 0 % 997,1 hPa 0,0 l/m 7,6 km/h (2 Bft) 0 min 8,9 km/h (2 Bft)
31.03.2010 06:38 15,4 C 5,9 C 0,0 UV-I 0,0 C 51 % 83 % 0 % 997,1 hPa 0,0 l/m 7,6 km/h (2 Bft) 0 min 6,0 km/h (2 Bft)
31.03.2010 06:40 15,4 C 5,9 C 0,0 UV-I 0,0 C 51 % 83 % 0 % 997,1 hPa 0,0 l/m 6,8 km/h (2 Bft) 0 min 8,7 km/h (2 Bft)
31.03.2010 06:42 15,4 C 5,9 C 0,0 UV-I 0,0 C 50 % 82 % 0 % 997,1 hPa 0,0 l/m 6,4 km/h (2 Bft) 0 min 7,9 km/h (2 Bft)
31.03.2010 06:44 15,3 C 5,9 C 0,0 UV-I 0,0 C 50 % 82 % 0 % 997,1 hPa 0,0 l/m 6,4 km/h (2 Bft) 0 min 3,1 km/h (1 Bft)
31.03.2010 06:46 15,4 C 5,9 C 0,0 UV-I 0,0 C 50 % 82 % 0 % 997,1 hPa 0,0 l/m 6,0 km/h (2 Bft) 0 min 0,0 km/h (0 Bft)
31.03.2010 06:48 15,4 C 5,8 C 0,0 UV-I 0,0 C 50 % 82 % 0 % 997,1 hPa 0,0 l/m 6,8 km/h (2 Bft) 0 min 10,8 km/h (2 Bft)
31.03.2010 06:50 15,4 C 5,8 C 0,0 UV-I 0,0 C 50 % 82 % 0 % 997,1 hPa 0,0 l/m 6,8 km/h (2 Bft) 0 min 3,8 km/h (1 Bft)
31.03.2010 06:52 15,4 C 5,8 C 0,0 UV-I 0,0 C 50 % 82 % 0 % 997,1 hPa 0,0 l/m 7,2 km/h (2 Bft) 0 min 2,9 km/h (1 Bft)
31.03.2010 06:54 15,4 C 5,8 C 0,0 UV-I 0,0 C 50 % 82 % 0 % 997,1 hPa 0,0 l/m 6,4 km/h (2 Bft) 0 min 7,7 km/h (2 Bft)
31.03.2010 06:56 15,4 C 5,8 C 0,0 UV-I 0,0 C 50 % 81 % 0 % 997,1 hPa 0,0 l/m 6,8 km/h (2 Bft) 0 min 12,8 km/h (3 Bft)
31.03.2010 06:58 15,4 C 5,9 C 0,0 UV-I 0,0 C 50 % 81 % 0 % 997,1 hPa 0,0 l/m 6,8 km/h (2 Bft) 0 min 10,3 km/h (2 Bft)
31.03.2010 07:00 15,4 C 6,0 C 0,0 UV-I 0,0 C 50 % 81 % 0 % 997,1 hPa 0,0 l/m 6,8 km/h (2 Bft) 0 min 4,6 km/h (1 Bft)
31.03.2010 07:02 15,4 C 6,0 C 0,0 UV-I 0,0 C 50 % 81 % 0 % 997,1 hPa 0,0 l/m 7,2 km/h (2 Bft) 0 min 4,8 km/h (1 Bft)
31.03.2010 07:04 15,4 C 6,1 C 0,0 UV-I 0,0 C 50 % 81 % 0 % 997,1 hPa 0,0 l/m 7,6 km/h (2 Bft) 0 min 2,4 km/h (1 Bft)
31.03.2010 07:06 15,4 C 6,1 C 0,0 UV-I 0,0 C 50 % 81 % 0 % 997,1 hPa 0,0 l/m 8,0 km/h (2 Bft) 0 min 10,3 km/h (2 Bft)
31.03.2010 07:08 15,4 C 6,1 C 0,0 UV-I 0,0 C 50 % 80 % 0 % 997,1 hPa 0,0 l/m 7,6 km/h (2 Bft) 0 min 3,8 km/h (1 Bft)
31.03.2010 07:12 15,4 C 6,1 C 0,0 UV-I 0,0 C 50 % 80 % 0 % 997,2 hPa 0,0 l/m 6,8 km/h (2 Bft) 0 min 8,4 km/h (2 Bft)
31.03.2010 07:16 15,4 C 6,0 C 0,0 UV-I 0,0 C 50 % 80 % 0 % 997,2 hPa 0,0 l/m 6,4 km/h (2 Bft) 0 min 5,1 km/h (1 Bft)
31.03.2010 07:18 15,2 C 6,1 C 0,0 UV-I 0,0 C 50 % 80 % 0 % 997,2 hPa 0,0 l/m 6,4 km/h (2 Bft) 0 min 13,5 km/h (3 Bft)
31.03.2010 07:20 15,2 C 6,1 C 0,0 UV-I 0,0 C 50 % 79 % 0 % 997,2 hPa 0,0 l/m 6,8 km/h (2 Bft) 0 min 11,1 km/h (2 Bft)
31.03.2010 07:22 15,2 C 6,3 C 0,0 UV-I 0,0 C 49 % 79 % 0 % 997,2 hPa 0,0 l/m 8,4 km/h (2 Bft) 0 min 15,2 km/h (3 Bft)
31.03.2010 07:24 15,2 C 6,3 C 0,0 UV-I 0,0 C 49 % 78 % 0 % 997,2 hPa 0,0 l/m 8,0 km/h (2 Bft) 0 min 7,9 km/h (2 Bft)
31.03.2010 07:26 15,2 C 6,2 C 0,0 UV-I 0,0 C 49 % 78 % 0 % 997,2 hPa 0,0 l/m 8,4 km/h (2 Bft) 0 min 5,8 km/h (2 Bft)
31.03.2010 07:28 15,2 C 6,3 C 0,0 UV-I 0,0 C 49 % 78 % 0 % 997,2 hPa 0,0 l/m 9,6 km/h (2 Bft) 0 min 6,7 km/h (2 Bft)
31.03.2010 07:30 15,2 C 6,3 C 0,0 UV-I 0,0 C 49 % 78 % 0 % 997,2 hPa 0,0 l/m 10,8 km/h (2 Bft) 0 min 12,0 km/h (2 Bft)
31.03.2010 07:32 15,2 C 6,4 C 0,0 UV-I 0,0 C 49 % 77 % 0 % 997,1 hPa 0,0 l/m 10,8 km/h (2 Bft) 0 min 7,2 km/h (2 Bft)
31.03.2010 07:34 15,3 C 6,4 C 0,0 UV-I 0,0 C 49 % 77 % 0 % 997,1 hPa 0,0 l/m 10,4 km/h (2 Bft) 0 min 6,5 km/h (2 Bft)
31.03.2010 07:38 15,3 C 6,4 C 0,0 UV-I 0,0 C 49 % 77 % 0 % 997,1 hPa 0,0 l/m 9,6 km/h (2 Bft) 0 min 7,0 km/h (2 Bft)
31.03.2010 07:40 15,3 C 6,4 C 0,0 UV-I 0,0 C 49 % 77 % 0 % 997,1 hPa 0,0 l/m 9,6 km/h (2 Bft) 0 min 7,7 km/h (2 Bft)
31.03.2010 07:42 15,3 C 6,4 C 0,0 UV-I 0,0 C 49 % 77 % 0 % 997,1 hPa 0,0 l/m 9,2 km/h (2 Bft) 0 min 6,5 km/h (2 Bft)
31.03.2010 07:44 15,3 C 6,5 C 0,0 UV-I 0,0 C 49 % 77 % 0 % 997,1 hPa 0,0 l/m 8,8 km/h (2 Bft) 0 min 11,1 km/h (2 Bft)
31.03.2010 07:46 15,1 C 6,6 C 0,0 UV-I 0,0 C 49 % 77 % 0 % 997,1 hPa 0,0 l/m 10,4 km/h (2 Bft) 0 min 11,1 km/h (2 Bft)
31.03.2010 07:48 15,1 C 6,7 C 0,0 UV-I 0,0 C 49 % 77 % 0 % 997,1 hPa 0,0 l/m 10,8 km/h (2 Bft) 0 min 4,1 km/h (1 Bft)
31.03.2010 07:50 15,1 C 6,7 C 0,0 UV-I 0,0 C 49 % 77 % 0 % 997,1 hPa 0,0 l/m 11,2 km/h (2 Bft) 0 min 16,4 km/h (3 Bft)
31.03.2010 07:52 15,1 C 6,6 C 0,0 UV-I 0,0 C 49 % 77 % 0 % 997,1 hPa 0,0 l/m 12,4 km/h (3 Bft) 0 min 13,0 km/h (3 Bft)
31.03.2010 07:54 15,1 C 6,7 C 0,0 UV-I 0,0 C 49 % 77 % 0 % 997,1 hPa 0,0 l/m 12,8 km/h (3 Bft) 0 min 12,5 km/h (3 Bft)
31.03.2010 07:56 15,1 C 6,7 C 0,0 UV-I 0,0 C 49 % 77 % 0 % 997,1 hPa 0,0 l/m 12,4 km/h (3 Bft) 0 min 5,5 km/h (1 Bft)
31.03.2010 07:58 15,1 C 6,7 C 0,0 UV-I 0,0 C 49 % 77 % 0 % 997,1 hPa 0,0 l/m 10,8 km/h (2 Bft) 0 min 7,2 km/h (2 Bft)
31.03.2010 08:00 15,3 C 6,8 C 0,0 UV-I 0,0 C 49 % 77 % 0 % 997,1 hPa 0,0 l/m 11,6 km/h (2 Bft) 0 min 9,6 km/h (2 Bft)
31.03.2010 08:02 15,1 C 6,8 C 0,0 UV-I 0,0 C 49 % 76 % 0 % 997,1 hPa 0,0 l/m 10,8 km/h (2 Bft) 0 min 9,4 km/h (2 Bft)
31.03.2010 08:04 15,1 C 6,9 C 0,0 UV-I 0,0 C 49 % 76 % 0 % 997,1 hPa 0,0 l/m 9,6 km/h (2 Bft) 0 min 2,9 km/h (1 Bft)
31.03.2010 08:06 15,3 C 6,8 C 0,0 UV-I 0,4 C 49 % 76 % 11 % 997,1 hPa 0,0 l/m 8,0 km/h (2 Bft) 0 min 10,1 km/h (2 Bft)
31.03.2010 08:08 15,3 C 6,8 C 0,0 UV-I 0,4 C 49 % 77 % 11 % 997,1 hPa 0,0 l/m 8,0 km/h (2 Bft) 0 min 2,4 km/h (1 Bft)
31.03.2010 08:10 15,2 C 6,8 C 0,1 UV-I 0,4 C 49 % 76 % 11 % 997,1 hPa 0,0 l/m 8,0 km/h (2 Bft) 0 min 10,8 km/h (2 Bft)
31.03.2010 08:12 15,2 C 6,9 C 0,1 UV-I 0,3 C 50 % 76 % 9 % 997,4 hPa 0,0 l/m 7,2 km/h (2 Bft) 0 min 5,8 km/h (2 Bft)
31.03.2010 08:14 15,3 C 6,8 C 0,1 UV-I 0,4 C 49 % 76 % 11 % 997,4 hPa 0,0 l/m 8,0 km/h (2 Bft) 0 min 14,0 km/h (3 Bft)
31.03.2010 08:16 15,2 C 6,9 C 0,1 UV-I 0,2 C 49 % 75 % 6 % 997,4 hPa 0,0 l/m 9,2 km/h (2 Bft) 0 min 9,4 km/h (2 Bft)
31.03.2010 08:18 15,2 C 6,9 C 0,1 UV-I 0,1 C 49 % 75 % 3 % 997,4 hPa 0,0 l/m 10,0 km/h (2 Bft) 0 min 14,2 km/h (3 Bft)
31.03.2010 08:20 15,2 C 6,9 C 0,1 UV-I 0,0 C 49 % 75 % 0 % 997,4 hPa 0,0 l/m 11,2 km/h (2 Bft) 0 min 9,6 km/h (2 Bft)
31.03.2010 08:22 15,2 C 7,1 C 0,1 UV-I 0,0 C 49 % 74 % 0 % 997,4 hPa 0,0 l/m 10,8 km/h (2 Bft) 0 min 5,1 km/h (1 Bft)
31.03.2010 08:24 15,2 C 7,1 C 0,1 UV-I 0,0 C 49 % 74 % 0 % 997,4 hPa 0,0 l/m 11,6 km/h (2 Bft) 0 min 8,7 km/h (2 Bft)
31.03.2010 08:28 15,2 C 7,1 C 0,4 UV-I 0,0 C 49 % 74 % 0 % 997,4 hPa 0,0 l/m 10,4 km/h (2 Bft) 0 min 13,7 km/h (3 Bft)
31.03.2010 08:30 15,3 C 7,1 C 0,5 UV-I 0,0 C 49 % 74 % 0 % 997,4 hPa 0,0 l/m 10,8 km/h (2 Bft) 0 min 8,2 km/h (2 Bft)
31.03.2010 08:32 15,3 C 7,1 C 0,5 UV-I 0,0 C 49 % 74 % 0 % 997,2 hPa 0,0 l/m 10,8 km/h (2 Bft) 0 min 9,1 km/h (2 Bft)
31.03.2010 08:34 15,3 C 7,1 C 0,5 UV-I 0,0 C 49 % 73 % 0 % 997,2 hPa 0,0 l/m 10,0 km/h (2 Bft) 0 min 7,5 km/h (2 Bft)
31.03.2010 08:36 15,2 C 7,0 C 0,7 UV-I 0,0 C 49 % 74 % 0 % 997,2 hPa 0,0 l/m 9,6 km/h (2 Bft) 0 min 10,1 km/h (2 Bft)
31.03.2010 08:38 15,3 C 7,0 C 0,7 UV-I 0,0 C 49 % 74 % 0 % 997,2 hPa 0,0 l/m 10,8 km/h (2 Bft) 0 min 3,8 km/h (1 Bft)
31.03.2010 08:40 15,3 C 7,1 C 0,7 UV-I 0,0 C 49 % 73 % 0 % 997,2 hPa 0,0 l/m 10,4 km/h (2 Bft) 0 min 8,9 km/h (2 Bft)
31.03.2010 08:42 15,2 C 7,1 C 0,7 UV-I 0,0 C 49 % 73 % 0 % 997,2 hPa 0,0 l/m 9,6 km/h (2 Bft) 0 min 4,8 km/h (1 Bft)
31.03.2010 08:44 15,3 C 7,1 C 0,7 UV-I 0,0 C 48 % 73 % 0 % 997,2 hPa 0,0 l/m 10,0 km/h (2 Bft) 0 min 6,5 km/h (2 Bft)
31.03.2010 08:46 15,3 C 7,1 C 0,8 UV-I 0,0 C 48 % 73 % 0 % 997,2 hPa 0,0 l/m 10,4 km/h (2 Bft) 0 min 9,4 km/h (2 Bft)
31.03.2010 08:50 15,2 C 7,3 C 0,8 UV-I 0,0 C 48 % 73 % 0 % 997,2 hPa 0,0 l/m 10,0 km/h (2 Bft) 0 min 11,1 km/h (2 Bft)
31.03.2010 08:52 15,2 C 7,3 C 0,8 UV-I 0,0 C 49 % 73 % 0 % 997,2 hPa 0,0 l/m 10,8 km/h (2 Bft) 0 min 13,7 km/h (3 Bft)
31.03.2010 08:54 15,2 C 7,3 C 0,8 UV-I 0,0 C 49 % 73 % 0 % 997,2 hPa 0,0 l/m 11,2 km/h (2 Bft) 0 min 8,9 km/h (2 Bft)
31.03.2010 08:56 15,2 C 7,3 C 0,9 UV-I 0,0 C 48 % 73 % 0 % 997,2 hPa 0,0 l/m 12,0 km/h (2 Bft) 0 min 5,5 km/h (1 Bft)
31.03.2010 08:58 15,3 C 7,2 C 0,9 UV-I 0,0 C 48 % 73 % 0 % 997,2 hPa 0,0 l/m 12,0 km/h (2 Bft) 0 min 16,4 km/h (3 Bft)
31.03.2010 09:00 15,2 C 7,3 C 1,0 UV-I 0,0 C 48 % 72 % 0 % 997,2 hPa 0,0 l/m 12,4 km/h (3 Bft) 0 min 7,7 km/h (2 Bft)
31.03.2010 09:04 15,3 C 7,5 C 1,0 UV-I 0,0 C 48 % 71 % 0 % 997,2 hPa 0,0 l/m 14,5 km/h (3 Bft) 0 min 25,5 km/h (4 Bft)
31.03.2010 09:06 15,2 C 7,5 C 1,0 UV-I 0,0 C 48 % 71 % 0 % 997,2 hPa 0,0 l/m 14,1 km/h (3 Bft) 0 min 7,2 km/h (2 Bft)
31.03.2010 09:08 15,3 C 7,6 C 1,0 UV-I 0,0 C 48 % 71 % 0 % 997,2 hPa 0,0 l/m 14,1 km/h (3 Bft) 0 min 12,3 km/h (3 Bft)
31.03.2010 09:12 15,2 C 7,6 C 1,1 UV-I 0,0 C 48 % 71 % 0 % 997,3 hPa 0,0 l/m 13,3 km/h (3 Bft) 0 min 26,9 km/h (4 Bft)
31.03.2010 09:14 15,2 C 7,7 C 1,1 UV-I 0,0 C 48 % 71 % 0 % 997,3 hPa 0,0 l/m 12,4 km/h (3 Bft) 0 min 9,6 km/h (2 Bft)
31.03.2010 09:16 15,2 C 7,6 C 1,1 UV-I 0,0 C 48 % 71 % 0 % 997,3 hPa 0,0 l/m 11,2 km/h (2 Bft) 0 min 10,8 km/h (2 Bft)
31.03.2010 09:18 15,2 C 7,6 C 1,1 UV-I 0,0 C 48 % 71 % 0 % 997,3 hPa 0,0 l/m 11,6 km/h (2 Bft) 0 min 7,0 km/h (2 Bft)
31.03.2010 09:20 15,2 C 7,6 C 1,2 UV-I 0,0 C 48 % 71 % 0 % 997,3 hPa 0,0 l/m 11,6 km/h (2 Bft) 0 min 8,9 km/h (2 Bft)
31.03.2010 09:22 15,2 C 7,7 C 1,2 UV-I 0,0 C 47 % 71 % 0 % 997,3 hPa 0,0 l/m 12,0 km/h (2 Bft) 0 min 13,7 km/h (3 Bft)
31.03.2010 09:24 15,3 C 7,6 C 1,2 UV-I 0,0 C 48 % 71 % 0 % 997,3 hPa 0,0 l/m 13,3 km/h (3 Bft) 0 min 9,6 km/h (2 Bft)
31.03.2010 09:26 15,3 C 7,6 C 1,0 UV-I 0,0 C 48 % 71 % 0 % 997,3 hPa 0,0 l/m 12,0 km/h (2 Bft) 0 min 11,5 km/h (2 Bft)
31.03.2010 09:28 15,3 C 7,7 C 1,0 UV-I 0,0 C 48 % 72 % 0 % 997,3 hPa 0,0 l/m 11,6 km/h (2 Bft) 0 min 6,5 km/h (2 Bft)
31.03.2010 09:30 15,2 C 7,7 C 1,2 UV-I 0,0 C 48 % 72 % 0 % 997,3 hPa 0,0 l/m 12,4 km/h (3 Bft) 0 min 9,6 km/h (2 Bft)
31.03.2010 09:32 15,2 C 7,8 C 1,2 UV-I 0,0 C 48 % 71 % 0 % 997,2 hPa 0,0 l/m 12,8 km/h (3 Bft) 0 min 14,7 km/h (3 Bft)
31.03.2010 09:34 15,2 C 7,9 C 1,2 UV-I 0,0 C 47 % 71 % 0 % 997,2 hPa 0,0 l/m 12,0 km/h (2 Bft) 0 min 4,1 km/h (1 Bft)
31.03.2010 09:36 15,3 C 7,8 C 1,3 UV-I 0,0 C 48 % 71 % 0 % 997,2 hPa 0,0 l/m 12,8 km/h (3 Bft) 0 min 7,2 km/h (2 Bft)
31.03.2010 09:38 15,2 C 7,9 C 1,3 UV-I 0,0 C 48 % 71 % 0 % 997,2 hPa 0,0 l/m 12,8 km/h (3 Bft) 0 min 7,9 km/h (2 Bft)
31.03.2010 09:40 15,3 C 7,9 C 1,4 UV-I 0,0 C 47 % 70 % 0 % 997,2 hPa 0,0 l/m 12,8 km/h (3 Bft) 0 min 14,7 km/h (3 Bft)
31.03.2010 09:42 15,2 C 8,0 C 1,4 UV-I 0,0 C 47 % 70 % 0 % 997,2 hPa 0,0 l/m 12,8 km/h (3 Bft) 0 min 6,0 km/h (2 Bft)
31.03.2010 09:44 15,2 C 8,0 C 1,4 UV-I 0,0 C 47 % 70 % 0 % 997,2 hPa 0,0 l/m 12,0 km/h (2 Bft) 0 min 19,5 km/h (3 Bft)
31.03.2010 09:46 15,2 C 8,0 C 1,4 UV-I 0,0 C 47 % 70 % 0 % 997,2 hPa 0,0 l/m 11,2 km/h (2 Bft) 0 min 8,9 km/h (2 Bft)
31.03.2010 09:48 15,2 C 8,1 C 1,4 UV-I 0,0 C 47 % 70 % 0 % 997,2 hPa 0,0 l/m 11,6 km/h (2 Bft) 0 min 15,4 km/h (3 Bft)
31.03.2010 09:50 15,2 C 8,1 C 1,5 UV-I 0,0 C 47 % 69 % 0 % 997,2 hPa 0,0 l/m 12,0 km/h (2 Bft) 0 min 8,9 km/h (2 Bft)
31.03.2010 09:52 15,2 C 8,3 C 1,5 UV-I 0,0 C 47 % 69 % 0 % 997,0 hPa 0,0 l/m 12,0 km/h (2 Bft) 0 min 10,3 km/h (2 Bft)
31.03.2010 09:54 15,2 C 8,3 C 1,5 UV-I 0,0 C 47 % 69 % 0 % 997,0 hPa 0,0 l/m 12,4 km/h (3 Bft) 0 min 12,0 km/h (2 Bft)
31.03.2010 09:56 15,2 C 8,3 C 1,5 UV-I 0,1 C 47 % 69 % 3 % 997,0 hPa 0,0 l/m 12,0 km/h (2 Bft) 0 min 7,7 km/h (2 Bft)
31.03.2010 09:58 15,2 C 8,3 C 1,5 UV-I 1,2 C 47 % 69 % 34 % 997,0 hPa 0,0 l/m 12,4 km/h (3 Bft) 0 min 16,4 km/h (3 Bft)
31.03.2010 10:02 15,2 C 8,4 C 1,7 UV-I 1,9 C 47 % 67 % 54 % 997,0 hPa 0,0 l/m 13,7 km/h (3 Bft) 0 min 17,3 km/h (3 Bft)
31.03.2010 10:04 15,2 C 8,4 C 1,7 UV-I 2,2 C 47 % 68 % 63 % 997,0 hPa 0,0 l/m 15,7 km/h (3 Bft) 0 min 20,9 km/h (4 Bft)
31.03.2010 10:06 15,2 C 8,5 C 1,7 UV-I 2,2 C 47 % 67 % 63 % 997,0 hPa 0,0 l/m 15,3 km/h (3 Bft) 0 min 9,6 km/h (2 Bft)
31.03.2010 10:08 15,2 C 8,5 C 1,7 UV-I 2,7 C 47 % 67 % 77 % 997,0 hPa 0,0 l/m 16,5 km/h (3 Bft) 0 min 20,7 km/h (4 Bft)
31.03.2010 10:10 15,2 C 8,5 C 2,3 UV-I 3,4 C 47 % 68 % 97 % 997,0 hPa 0,0 l/m 13,7 km/h (3 Bft) 2 min 6,7 km/h (2 Bft)
31.03.2010 10:12 15,2 C 8,7 C 2,3 UV-I 2,9 C 47 % 67 % 83 % 997,2 hPa 0,0 l/m 13,7 km/h (3 Bft) 2 min 8,2 km/h (2 Bft)
31.03.2010 10:14 15,2 C 8,7 C 2,3 UV-I 2,7 C 47 % 67 % 77 % 997,2 hPa 0,0 l/m 14,1 km/h (3 Bft) 0 min 14,7 km/h (3 Bft)
31.03.2010 10:16 15,4 C 8,7 C 1,2 UV-I 2,3 C 47 % 67 % 66 % 997,2 hPa 0,0 l/m 14,5 km/h (3 Bft) 0 min 12,8 km/h (3 Bft)
31.03.2010 10:18 15,4 C 8,7 C 1,2 UV-I 2,0 C 47 % 67 % 57 % 997,2 hPa 0,0 l/m 15,7 km/h (3 Bft) 0 min 13,7 km/h (3 Bft)
31.03.2010 10:20 15,4 C 8,9 C 1,3 UV-I 1,3 C 47 % 66 % 37 % 997,2 hPa 0,0 l/m 16,9 km/h (3 Bft) 0 min 31,3 km/h (5 Bft)
31.03.2010 10:22 15,4 C 8,8 C 1,3 UV-I 1,0 C 47 % 66 % 29 % 997,2 hPa 0,0 l/m 18,5 km/h (3 Bft) 0 min 9,6 km/h (2 Bft)
31.03.2010 10:24 15,4 C 8,8 C 1,3 UV-I 0,6 C 47 % 67 % 17 % 997,2 hPa 0,0 l/m 20,1 km/h (4 Bft) 0 min 10,3 km/h (2 Bft)
31.03.2010 10:28 15,4 C 8,8 C 1,4 UV-I 0,6 C 47 % 67 % 17 % 997,2 hPa 0,0 l/m 17,7 km/h (3 Bft) 0 min 7,7 km/h (2 Bft)
31.03.2010 10:32 15,4 C 8,8 C 1,3 UV-I 0,8 C 47 % 67 % 23 % 997,1 hPa 0,0 l/m 16,5 km/h (3 Bft) 0 min 33,7 km/h (5 Bft)
31.03.2010 10:34 15,4 C 8,9 C 1,3 UV-I 1,1 C 47 % 67 % 31 % 997,1 hPa 0,0 l/m 18,1 km/h (3 Bft) 0 min 22,9 km/h (4 Bft)
31.03.2010 10:36 15,4 C 8,9 C 2,0 UV-I 1,0 C 47 % 66 % 29 % 997,1 hPa 0,0 l/m 18,5 km/h (3 Bft) 0 min 14,4 km/h (3 Bft)
31.03.2010 10:38 15,4 C 9,1 C 2,0 UV-I 1,1 C 47 % 67 % 31 % 997,1 hPa 0,0 l/m 18,1 km/h (3 Bft) 0 min 11,3 km/h (2 Bft)
31.03.2010 10:40 15,4 C 9,1 C 3,1 UV-I 1,4 C 47 % 67 % 40 % 997,1 hPa 0,0 l/m 19,7 km/h (3 Bft) 0 min 26,2 km/h (4 Bft)
31.03.2010 10:42 15,4 C 9,2 C 3,1 UV-I 2,6 C 47 % 67 % 74 % 997,1 hPa 0,0 l/m 18,1 km/h (3 Bft) 0 min 21,2 km/h (4 Bft)
31.03.2010 10:44 15,4 C 9,3 C 3,1 UV-I 3,9 C 47 % 67 % 100 % 997,1 hPa 0,0 l/m 16,1 km/h (3 Bft) 2 min 15,2 km/h (3 Bft)
31.03.2010 10:46 15,3 C 9,5 C 2,5 UV-I 4,3 C 47 % 67 % 100 % 997,1 hPa 0,0 l/m 16,1 km/h (3 Bft) 2 min 20,7 km/h (4 Bft)
31.03.2010 10:48 15,3 C 9,6 C 2,5 UV-I 4,7 C 47 % 66 % 100 % 997,1 hPa 0,0 l/m 18,1 km/h (3 Bft) 2 min 10,8 km/h (2 Bft)
31.03.2010 10:50 15,3 C 9,8 C 2,3 UV-I 4,8 C 47 % 65 % 100 % 997,1 hPa 0,0 l/m 20,1 km/h (4 Bft) 2 min 21,7 km/h (4 Bft)
31.03.2010 10:52 15,3 C 9,9 C 2,3 UV-I 5,0 C 47 % 65 % 100 % 997,1 hPa 0,0 l/m 19,7 km/h (3 Bft) 2 min 13,7 km/h (3 Bft)
31.03.2010 10:54 15,5 C 9,8 C 2,3 UV-I 4,9 C 47 % 64 % 100 % 997,1 hPa 0,0 l/m 20,9 km/h (4 Bft) 2 min 15,6 km/h (3 Bft)
31.03.2010 10:56 15,5 C 9,8 C 6,4 UV-I 4,3 C 47 % 63 % 100 % 997,1 hPa 0,0 l/m 21,3 km/h (4 Bft) 2 min 18,5 km/h (3 Bft)
31.03.2010 11:00 15,4 C 9,7 C 6,4 UV-I 3,1 C 47 % 64 % 89 % 997,1 hPa 0,0 l/m 20,1 km/h (4 Bft) 2 min 32,5 km/h (5 Bft)
31.03.2010 11:02 15,4 C 9,7 C 6,4 UV-I 3,0 C 47 % 64 % 86 % 997,1 hPa 0,0 l/m 18,9 km/h (3 Bft) 2 min 19,2 km/h (3 Bft)
31.03.2010 11:04 15,4 C 9,9 C 6,4 UV-I 3,0 C 46 % 64 % 86 % 997,1 hPa 0,0 l/m 17,7 km/h (3 Bft) 2 min 14,0 km/h (3 Bft)
31.03.2010 11:06 15,4 C 9,9 C 6,5 UV-I 4,2 C 46 % 64 % 100 % 997,1 hPa 0,0 l/m 15,7 km/h (3 Bft) 2 min 7,5 km/h (2 Bft)
31.03.2010 11:08 15,6 C 10,1 C 6,5 UV-I 4,0 C 46 % 64 % 100 % 997,1 hPa 0,0 l/m 14,1 km/h (3 Bft) 2 min 11,5 km/h (2 Bft)
31.03.2010 11:14 15,4 C 9,9 C 3,1 UV-I 3,0 C 46 % 63 % 86 % 996,9 hPa 0,0 l/m 12,8 km/h (3 Bft) 2 min 11,3 km/h (2 Bft)
31.03.2010 11:18 15,6 C 9,8 C 5,6 UV-I 1,8 C 46 % 62 % 51 % 996,9 hPa 0,0 l/m 16,5 km/h (3 Bft) 0 min 15,6 km/h (3 Bft)
31.03.2010 11:20 15,6 C 9,9 C 1,5 UV-I 1,4 C 46 % 63 % 40 % 996,9 hPa 0,0 l/m 15,3 km/h (3 Bft) 0 min 13,5 km/h (3 Bft)
31.03.2010 11:22 15,6 C 9,9 C 1,5 UV-I 1,4 C 46 % 63 % 40 % 996,9 hPa 0,0 l/m 15,3 km/h (3 Bft) 0 min 5,1 km/h (1 Bft)
31.03.2010 11:24 15,6 C 9,8 C 1,5 UV-I 1,8 C 46 % 63 % 51 % 996,9 hPa 0,0 l/m 16,9 km/h (3 Bft) 0 min 13,0 km/h (3 Bft)
31.03.2010 11:26 15,6 C 9,8 C 3,2 UV-I 1,8 C 46 % 63 % 51 % 996,9 hPa 0,0 l/m 15,7 km/h (3 Bft) 0 min 7,7 km/h (2 Bft)
31.03.2010 11:28 15,6 C 9,8 C 3,2 UV-I 1,6 C 46 % 63 % 46 % 996,9 hPa 0,0 l/m 15,7 km/h (3 Bft) 0 min 16,4 km/h (3 Bft)
31.03.2010 11:30 15,6 C 9,9 C 1,4 UV-I 1,0 C 46 % 62 % 29 % 996,9 hPa 0,0 l/m 16,5 km/h (3 Bft) 0 min 14,0 km/h (3 Bft)
31.03.2010 11:32 15,4 C 9,9 C 1,4 UV-I 0,7 C 46 % 62 % 20 % 997,1 hPa 0,0 l/m 16,5 km/h (3 Bft) 0 min 28,1 km/h (4 Bft)
31.03.2010 11:34 15,6 C 9,8 C 1,4 UV-I 0,4 C 46 % 61 % 11 % 997,1 hPa 0,0 l/m 16,9 km/h (3 Bft) 0 min 10,1 km/h (2 Bft)
31.03.2010 11:36 15,6 C 9,9 C 1,3 UV-I 0,2 C 46 % 61 % 6 % 997,1 hPa 0,0 l/m 15,3 km/h (3 Bft) 0 min 11,8 km/h (2 Bft)
31.03.2010 11:38 15,4 C 9,9 C 1,3 UV-I 0,0 C 46 % 60 % 0 % 997,1 hPa 0,0 l/m 16,1 km/h (3 Bft) 0 min 19,2 km/h (3 Bft)
31.03.2010 11:40 15,6 C 9,8 C 2,3 UV-I 0,0 C 46 % 60 % 0 % 997,1 hPa 0,0 l/m 15,7 km/h (3 Bft) 0 min 9,6 km/h (2 Bft)
31.03.2010 11:42 15,6 C 9,9 C 2,3 UV-I 0,1 C 46 % 59 % 3 % 997,1 hPa 0,0 l/m 16,5 km/h (3 Bft) 0 min 9,6 km/h (2 Bft)
31.03.2010 11:44 15,6 C 9,8 C 2,3 UV-I 0,7 C 46 % 59 % 20 % 997,1 hPa 0,0 l/m 17,3 km/h (3 Bft) 0 min 22,9 km/h (4 Bft)
31.03.2010 11:46 15,6 C 10,1 C 7,0 UV-I 1,7 C 46 % 58 % 49 % 997,1 hPa 0,0 l/m 18,5 km/h (3 Bft) 0 min 12,5 km/h (3 Bft)
31.03.2010 11:48 15,6 C 10,0 C 7,0 UV-I 2,8 C 46 % 59 % 80 % 997,1 hPa 0,0 l/m 17,3 km/h (3 Bft) 0 min 5,1 km/h (1 Bft)
31.03.2010 11:50 15,6 C 10,2 C 9,5 UV-I 3,7 C 46 % 58 % 100 % 997,1 hPa 0,0 l/m 16,9 km/h (3 Bft) 2 min 17,3 km/h (3 Bft)
31.03.2010 11:52 15,6 C 10,4 C 9,5 UV-I 3,9 C 45 % 57 % 100 % 997,8 hPa 0,0 l/m 16,9 km/h (3 Bft) 2 min 15,9 km/h (3 Bft)
31.03.2010 11:54 15,7 C 10,4 C 9,5 UV-I 3,4 C 45 % 56 % 97 % 997,8 hPa 0,0 l/m 18,1 km/h (3 Bft) 2 min 20,9 km/h (4 Bft)
31.03.2010 11:56 15,7 C 10,4 C 2,9 UV-I 2,8 C 45 % 56 % 80 % 997,8 hPa 0,0 l/m 16,5 km/h (3 Bft) 0 min 18,0 km/h (3 Bft)
31.03.2010 11:58 15,6 C 10,5 C 2,9 UV-I 2,2 C 45 % 55 % 63 % 997,8 hPa 0,0 l/m 17,3 km/h (3 Bft) 0 min 16,6 km/h (3 Bft)
31.03.2010 12:00 15,6 C 10,5 C 3,1 UV-I 2,0 C 45 % 56 % 57 % 997,8 hPa 0,0 l/m 18,1 km/h (3 Bft) 0 min 13,0 km/h (3 Bft)
31.03.2010 12:02 15,6 C 10,4 C 3,1 UV-I 2,0 C 44 % 56 % 57 % 997,8 hPa 0,0 l/m 16,9 km/h (3 Bft) 0 min 13,5 km/h (3 Bft)
31.03.2010 12:04 15,6 C 10,4 C 3,1 UV-I 2,0 C 44 % 56 % 57 % 997,8 hPa 0,0 l/m 16,9 km/h (3 Bft) 0 min 13,5 km/h (3 Bft)
31.03.2010 12:06 15,6 C 10,3 C 3,1 UV-I 1,1 C 45 % 55 % 31 % 997,8 hPa 0,0 l/m 16,9 km/h (3 Bft) 0 min 22,9 km/h (4 Bft)
31.03.2010 12:08 15,6 C 10,3 C 3,1 UV-I 1,0 C 44 % 55 % 29 % 997,8 hPa 0,0 l/m 16,1 km/h (3 Bft) 0 min 11,3 km/h (2 Bft)
31.03.2010 12:10 15,6 C 10,3 C 5,6 UV-I 1,1 C 44 % 55 % 31 % 997,8 hPa 0,0 l/m 16,1 km/h (3 Bft) 0 min 10,6 km/h (2 Bft)
31.03.2010 12:12 15,6 C 10,3 C 5,6 UV-I 1,5 C 44 % 55 % 43 % 997,1 hPa 0,0 l/m 17,3 km/h (3 Bft) 0 min 9,9 km/h (2 Bft)
31.03.2010 12:14 15,6 C 10,4 C 5,6 UV-I 2,1 C 44 % 55 % 60 % 997,1 hPa 0,0 l/m 18,1 km/h (3 Bft) 0 min 6,3 km/h (2 Bft)
31.03.2010 12:16 15,8 C 10,5 C 8,1 UV-I 2,4 C 44 % 55 % 69 % 997,1 hPa 0,0 l/m 16,9 km/h (3 Bft) 0 min 11,3 km/h (2 Bft)
31.03.2010 12:18 15,8 C 10,7 C 8,1 UV-I 3,0 C 44 % 55 % 86 % 997,1 hPa 0,0 l/m 16,5 km/h (3 Bft) 2 min 15,4 km/h (3 Bft)
31.03.2010 12:20 15,8 C 10,7 C 11,0 UV-I 3,5 C 44 % 55 % 100 % 997,1 hPa 0,0 l/m 17,3 km/h (3 Bft) 2 min 12,8 km/h (3 Bft)
31.03.2010 12:22 15,8 C 10,8 C 11,0 UV-I 4,0 C 44 % 56 % 100 % 997,1 hPa 0,0 l/m 16,5 km/h (3 Bft) 2 min 12,0 km/h (2 Bft)
31.03.2010 12:24 15,8 C 10,9 C 11,0 UV-I 4,5 C 44 % 54 % 100 % 997,1 hPa 0,0 l/m 16,9 km/h (3 Bft) 2 min 10,6 km/h (2 Bft)
31.03.2010 12:26 15,8 C 11,1 C 11,3 UV-I 4,5 C 44 % 53 % 100 % 997,1 hPa 0,0 l/m 16,5 km/h (3 Bft) 2 min 11,8 km/h (2 Bft)
31.03.2010 12:28 15,8 C 11,1 C 11,3 UV-I 4,8 C 44 % 53 % 100 % 997,1 hPa 0,0 l/m 16,5 km/h (3 Bft) 2 min 9,4 km/h (2 Bft)
31.03.2010 12:30 15,8 C 11,2 C 11,4 UV-I 5,0 C 44 % 52 % 100 % 997,1 hPa 0,0 l/m 16,1 km/h (3 Bft) 2 min 17,6 km/h (3 Bft)
31.03.2010 12:32 15,8 C 11,2 C 11,4 UV-I 5,1 C 44 % 53 % 100 % 997,2 hPa 0,0 l/m 15,3 km/h (3 Bft) 2 min 5,3 km/h (1 Bft)
31.03.2010 12:34 15,8 C 11,3 C 11,4 UV-I 5,1 C 44 % 52 % 100 % 997,2 hPa 0,0 l/m 16,1 km/h (3 Bft) 2 min 19,5 km/h (3 Bft)
31.03.2010 12:36 15,9 C 11,3 C 9,4 UV-I 5,0 C 44 % 53 % 100 % 997,2 hPa 0,0 l/m 15,3 km/h (3 Bft) 2 min 13,0 km/h (3 Bft)
31.03.2010 12:38 15,9 C 11,5 C 9,4 UV-I 4,7 C 44 % 53 % 100 % 997,2 hPa 0,0 l/m 14,1 km/h (3 Bft) 2 min 6,0 km/h (2 Bft)
31.03.2010 12:40 15,9 C 11,5 C 10,0 UV-I 5,0 C 44 % 53 % 100 % 997,2 hPa 0,0 l/m 14,5 km/h (3 Bft) 2 min 11,5 km/h (2 Bft)
31.03.2010 12:42 15,9 C 11,7 C 10,0 UV-I 5,0 C 44 % 53 % 100 % 997,2 hPa 0,0 l/m 14,1 km/h (3 Bft) 2 min 18,5 km/h (3 Bft)
31.03.2010 12:44 15,9 C 11,9 C 10,0 UV-I 5,0 C 44 % 52 % 100 % 997,2 hPa 0,0 l/m 14,9 km/h (3 Bft) 2 min 15,6 km/h (3 Bft)
31.03.2010 12:46 15,9 C 11,8 C 10,8 UV-I 5,2 C 44 % 51 % 100 % 997,2 hPa 0,0 l/m 14,1 km/h (3 Bft) 2 min 13,5 km/h (3 Bft)
31.03.2010 12:48 16,0 C 11,9 C 10,8 UV-I 5,2 C 44 % 51 % 100 % 997,2 hPa 0,0 l/m 14,5 km/h (3 Bft) 2 min 12,8 km/h (3 Bft)
31.03.2010 12:50 16,0 C 11,9 C 10,9 UV-I 5,3 C 44 % 52 % 100 % 997,2 hPa 0,0 l/m 14,5 km/h (3 Bft) 2 min 10,8 km/h (2 Bft)
31.03.2010 12:52 16,0 C 12,0 C 10,9 UV-I 5,4 C 44 % 51 % 100 % 997,3 hPa 0,0 l/m 14,9 km/h (3 Bft) 2 min 11,8 km/h (2 Bft)
31.03.2010 12:56 15,9 C 12,1 C 8,5 UV-I 5,0 C 44 % 50 % 100 % 997,3 hPa 0,0 l/m 14,9 km/h (3 Bft) 2 min 13,2 km/h (3 Bft)
31.03.2010 12:58 16,1 C 12,0 C 8,5 UV-I 4,7 C 44 % 49 % 100 % 997,3 hPa 0,0 l/m 15,7 km/h (3 Bft) 2 min 19,0 km/h (3 Bft)
31.03.2010 13:02 16,2 C 12,0 C 6,2 UV-I 3,2 C 43 % 48 % 91 % 997,3 hPa 0,0 l/m 20,9 km/h (4 Bft) 2 min 36,8 km/h (5 Bft)
31.03.2010 13:04 16,2 C 12,0 C 6,2 UV-I 3,1 C 43 % 49 % 89 % 997,3 hPa 0,0 l/m 21,3 km/h (4 Bft) 2 min 40,4 km/h (6 Bft)
31.03.2010 13:06 16,2 C 12,0 C 5,4 UV-I 2,3 C 43 % 48 % 66 % 997,3 hPa 0,0 l/m 24,5 km/h (4 Bft) 0 min 16,4 km/h (3 Bft)
31.03.2010 13:08 16,2 C 12,0 C 5,4 UV-I 1,6 C 43 % 48 % 46 % 997,3 hPa 0,0 l/m 23,7 km/h (4 Bft) 0 min 9,1 km/h (2 Bft)
31.03.2010 13:10 16,2 C 12,0 C 3,7 UV-I 1,4 C 43 % 48 % 40 % 997,3 hPa 0,0 l/m 22,5 km/h (4 Bft) 0 min 40,4 km/h (6 Bft)
31.03.2010 13:12 16,3 C 12,0 C 3,7 UV-I 1,4 C 43 % 48 % 40 % 996,9 hPa 0,0 l/m 24,1 km/h (4 Bft) 0 min 10,1 km/h (2 Bft)
31.03.2010 13:14 16,3 C 12,0 C 3,7 UV-I 1,9 C 43 % 47 % 54 % 996,9 hPa 0,0 l/m 24,9 km/h (4 Bft) 0 min 12,0 km/h (2 Bft)
31.03.2010 13:16 16,3 C 12,0 C 8,7 UV-I 2,4 C 43 % 49 % 69 % 996,9 hPa 0,0 l/m 21,3 km/h (4 Bft) 0 min 13,5 km/h (3 Bft)
31.03.2010 13:18 16,2 C 12,0 C 8,7 UV-I 2,4 C 43 % 47 % 69 % 996,9 hPa 0,0 l/m 22,5 km/h (4 Bft) 0 min 32,7 km/h (5 Bft)
31.03.2010 13:20 16,2 C 12,0 C 3,3 UV-I 2,0 C 43 % 46 % 57 % 996,9 hPa 0,0 l/m 24,1 km/h (4 Bft) 0 min 25,0 km/h (4 Bft)
31.03.2010 13:22 16,2 C 12,0 C 3,3 UV-I 1,4 C 42 % 46 % 40 % 996,9 hPa 0,0 l/m 22,5 km/h (4 Bft) 0 min 14,0 km/h (3 Bft)
31.03.2010 13:24 16,2 C 12,0 C 3,3 UV-I 1,4 C 42 % 46 % 40 % 996,9 hPa 0,0 l/m 19,7 km/h (3 Bft) 0 min 5,5 km/h (1 Bft)
31.03.2010 13:26 16,4 C 12,1 C 3,6 UV-I 1,3 C 42 % 46 % 37 % 996,9 hPa 0,0 l/m 19,7 km/h (3 Bft) 0 min 7,2 km/h (2 Bft)
31.03.2010 13:28 16,4 C 12,0 C 3,6 UV-I 1,2 C 42 % 46 % 34 % 996,9 hPa 0,0 l/m 18,9 km/h (3 Bft) 0 min 12,8 km/h (3 Bft)
31.03.2010 13:30 16,4 C 12,0 C 2,6 UV-I 1,0 C 42 % 47 % 29 % 996,9 hPa 0,0 l/m 17,7 km/h (3 Bft) 0 min 12,0 km/h (2 Bft)
31.03.2010 13:32 16,4 C 12,1 C 2,6 UV-I 0,8 C 42 % 47 % 23 % 997,1 hPa 0,0 l/m 16,5 km/h (3 Bft) 0 min 7,2 km/h (2 Bft)
31.03.2010 13:34 16,4 C 12,0 C 2,6 UV-I 1,0 C 42 % 48 % 29 % 997,1 hPa 0,0 l/m 15,3 km/h (3 Bft) 0 min 12,8 km/h (3 Bft)
31.03.2010 13:36 16,4 C 12,1 C 3,4 UV-I 2,0 C 42 % 47 % 57 % 997,1 hPa 0,0 l/m 14,5 km/h (3 Bft) 0 min 9,4 km/h (2 Bft)
31.03.2010 13:38 16,5 C 12,3 C 3,4 UV-I 2,6 C 42 % 47 % 74 % 997,1 hPa 0,0 l/m 15,7 km/h (3 Bft) 0 min 18,5 km/h (3 Bft)
31.03.2010 13:40 16,5 C 12,3 C 4,6 UV-I 3,3 C 41 % 47 % 94 % 997,1 hPa 0,0 l/m 16,1 km/h (3 Bft) 2 min 11,3 km/h (2 Bft)
31.03.2010 13:42 16,6 C 12,4 C 4,6 UV-I 3,7 C 41 % 47 % 100 % 997,1 hPa 0,0 l/m 15,7 km/h (3 Bft) 2 min 18,5 km/h (3 Bft)
31.03.2010 13:44 16,6 C 12,4 C 4,6 UV-I 4,2 C 41 % 47 % 100 % 997,1 hPa 0,0 l/m 18,9 km/h (3 Bft) 2 min 12,8 km/h (3 Bft)
31.03.2010 13:46 16,7 C 12,5 C 3,9 UV-I 4,4 C 41 % 48 % 100 % 997,1 hPa 0,0 l/m 20,1 km/h (4 Bft) 2 min 33,7 km/h (5 Bft)
31.03.2010 13:48 16,7 C 12,6 C 3,9 UV-I 4,4 C 41 % 45 % 100 % 997,1 hPa 0,0 l/m 20,9 km/h (4 Bft) 2 min 12,8 km/h (3 Bft)
31.03.2010 13:50 16,8 C 12,5 C 3,9 UV-I 4,1 C 41 % 45 % 100 % 997,1 hPa 0,0 l/m 20,5 km/h (4 Bft) 2 min 19,5 km/h (3 Bft)
31.03.2010 13:52 16,8 C 12,5 C 3,9 UV-I 3,1 C 41 % 46 % 89 % 997,6 hPa 0,0 l/m 22,1 km/h (4 Bft) 2 min 13,7 km/h (3 Bft)
31.03.2010 13:54 16,8 C 12,5 C 3,9 UV-I 3,3 C 41 % 45 % 94 % 997,6 hPa 0,0 l/m 21,7 km/h (4 Bft) 2 min 15,9 km/h (3 Bft)
31.03.2010 13:56 16,8 C 12,5 C 3,8 UV-I 2,9 C 41 % 45 % 83 % 997,6 hPa 0,0 l/m 22,9 km/h (4 Bft) 2 min 39,5 km/h (6 Bft)
31.03.2010 13:58 16,8 C 12,4 C 3,8 UV-I 2,2 C 41 % 45 % 63 % 997,6 hPa 0,0 l/m 23,3 km/h (4 Bft) 0 min 24,8 km/h (4 Bft)
31.03.2010 14:00 16,8 C 12,4 C 3,5 UV-I 1,9 C 40 % 45 % 54 % 997,6 hPa 0,0 l/m 21,7 km/h (4 Bft) 0 min 12,5 km/h (3 Bft)
31.03.2010 14:02 16,9 C 12,5 C 3,5 UV-I 1,9 C 40 % 46 % 54 % 997,6 hPa 0,0 l/m 19,7 km/h (3 Bft) 0 min 11,8 km/h (2 Bft)
31.03.2010 14:04 16,9 C 12,4 C 3,5 UV-I 1,9 C 40 % 46 % 54 % 997,6 hPa 0,0 l/m 19,3 km/h (3 Bft) 0 min 9,4 km/h (2 Bft)
31.03.2010 14:06 16,9 C 12,5 C 2,5 UV-I 1,5 C 40 % 45 % 43 % 997,6 hPa 0,0 l/m 19,3 km/h (3 Bft) 0 min 21,2 km/h (4 Bft)
31.03.2010 14:08 16,9 C 12,4 C 2,5 UV-I 1,0 C 40 % 45 % 29 % 997,6 hPa 0,0 l/m 17,7 km/h (3 Bft) 0 min 25,5 km/h (4 Bft)
31.03.2010 14:10 16,9 C 12,2 C 1,0 UV-I 0,9 C 40 % 46 % 26 % 997,6 hPa 0,0 l/m 16,9 km/h (3 Bft) 0 min 15,4 km/h (3 Bft)
31.03.2010 14:12 16,9 C 12,3 C 1,0 UV-I 0,4 C 40 % 46 % 11 % 997,4 hPa 0,0 l/m 18,1 km/h (3 Bft) 0 min 9,4 km/h (2 Bft)
31.03.2010 14:14 16,9 C 12,3 C 1,0 UV-I 0,0 C 40 % 46 % 0 % 997,4 hPa 0,0 l/m 18,9 km/h (3 Bft) 0 min 12,3 km/h (3 Bft)
31.03.2010 14:16 16,9 C 12,2 C 1,3 UV-I 0,1 C 40 % 46 % 3 % 997,4 hPa 0,0 l/m 18,9 km/h (3 Bft) 0 min 8,2 km/h (2 Bft)
31.03.2010 14:18 16,9 C 12,2 C 1,3 UV-I 0,2 C 40 % 47 % 6 % 997,4 hPa 0,0 l/m 17,3 km/h (3 Bft) 0 min 3,4 km/h (1 Bft)
31.03.2010 14:20 16,9 C 12,3 C 1,3 UV-I 1,0 C 40 % 47 % 29 % 997,4 hPa 0,0 l/m 15,7 km/h (3 Bft) 0 min 15,4 km/h (3 Bft)
31.03.2010 14:22 17,0 C 12,5 C 1,3 UV-I 1,8 C 40 % 48 % 51 % 997,4 hPa 0,0 l/m 16,1 km/h (3 Bft) 0 min 19,2 km/h (3 Bft)
31.03.2010 14:24 17,0 C 12,5 C 1,3 UV-I 2,5 C 40 % 47 % 71 % 997,4 hPa 0,0 l/m 16,9 km/h (3 Bft) 0 min 13,0 km/h (3 Bft)
31.03.2010 14:26 17,0 C 12,4 C 5,8 UV-I 2,3 C 40 % 47 % 66 % 997,4 hPa 0,0 l/m 17,7 km/h (3 Bft) 0 min 27,4 km/h (4 Bft)
31.03.2010 14:28 17,1 C 12,4 C 5,8 UV-I 1,7 C 40 % 47 % 49 % 997,4 hPa 0,0 l/m 18,9 km/h (3 Bft) 0 min 13,7 km/h (3 Bft)
31.03.2010 14:34 17,1 C 12,4 C 5,1 UV-I 2,0 C 40 % 47 % 57 % 998,3 hPa 0,0 l/m 21,3 km/h (4 Bft) 0 min 41,1 km/h (6 Bft)
31.03.2010 14:36 17,2 C 12,5 C 10,0 UV-I 2,6 C 40 % 47 % 74 % 998,3 hPa 0,0 l/m 21,7 km/h (4 Bft) 0 min 19,0 km/h (3 Bft)
31.03.2010 14:38 17,2 C 12,5 C 10,0 UV-I 2,8 C 40 % 45 % 80 % 998,3 hPa 0,0 l/m 22,1 km/h (4 Bft) 0 min 21,2 km/h (4 Bft)
31.03.2010 14:40 17,2 C 12,5 C 4,9 UV-I 2,3 C 40 % 45 % 66 % 998,3 hPa 0,0 l/m 22,1 km/h (4 Bft) 0 min 17,3 km/h (3 Bft)
31.03.2010 14:42 17,2 C 12,4 C 4,9 UV-I 1,9 C 40 % 45 % 54 % 998,3 hPa 0,0 l/m 22,1 km/h (4 Bft) 0 min 17,3 km/h (3 Bft)
31.03.2010 14:44 17,2 C 12,5 C 4,9 UV-I 1,8 C 40 % 46 % 51 % 998,3 hPa 0,0 l/m 20,1 km/h (4 Bft) 0 min 9,1 km/h (2 Bft)
31.03.2010 14:46 17,2 C 12,5 C 4,9 UV-I 2,3 C 40 % 46 % 66 % 998,3 hPa 0,0 l/m 19,3 km/h (3 Bft) 0 min 6,7 km/h (2 Bft)
31.03.2010 14:48 17,3 C 12,7 C 4,9 UV-I 2,0 C 40 % 46 % 57 % 998,3 hPa 0,0 l/m 18,5 km/h (3 Bft) 0 min 14,2 km/h (3 Bft)
31.03.2010 14:50 17,3 C 12,7 C 3,5 UV-I 2,0 C 39 % 45 % 57 % 998,3 hPa 0,0 l/m 18,1 km/h (3 Bft) 0 min 23,8 km/h (4 Bft)
31.03.2010 14:54 17,2 C 12,8 C 3,5 UV-I 2,1 C 39 % 45 % 60 % 998,9 hPa 0,0 l/m 15,7 km/h (3 Bft) 0 min 20,7 km/h (4 Bft)
31.03.2010 14:56 17,2 C 12,7 C 5,5 UV-I 2,1 C 39 % 45 % 60 % 998,9 hPa 0,0 l/m 16,1 km/h (3 Bft) 0 min 10,8 km/h (2 Bft)
31.03.2010 14:58 17,2 C 12,9 C 5,5 UV-I 2,6 C 39 % 44 % 74 % 998,9 hPa 0,0 l/m 17,3 km/h (3 Bft) 0 min 37,8 km/h (5 Bft)
31.03.2010 15:02 17,4 C 12,9 C 10,0 UV-I 3,3 C 39 % 45 % 94 % 998,9 hPa 0,0 l/m 16,9 km/h (3 Bft) 2 min 8,2 km/h (2 Bft)
31.03.2010 15:04 17,4 C 13,0 C 10,0 UV-I 3,2 C 39 % 46 % 91 % 998,9 hPa 0,0 l/m 16,5 km/h (3 Bft) 2 min 17,8 km/h (3 Bft)
31.03.2010 15:06 17,4 C 13,0 C 6,4 UV-I 3,0 C 39 % 45 % 86 % 998,9 hPa 0,0 l/m 15,7 km/h (3 Bft) 2 min 4,3 km/h (1 Bft)
31.03.2010 15:08 17,4 C 13,1 C 6,4 UV-I 2,8 C 39 % 45 % 80 % 998,9 hPa 0,0 l/m 17,7 km/h (3 Bft) 0 min 14,2 km/h (3 Bft)
31.03.2010 15:10 17,4 C 13,0 C 4,3 UV-I 2,5 C 39 % 45 % 71 % 998,9 hPa 0,0 l/m 16,9 km/h (3 Bft) 0 min 14,2 km/h (3 Bft)
31.03.2010 15:12 17,4 C 12,9 C 4,3 UV-I 2,2 C 39 % 45 % 63 % 998,4 hPa 0,0 l/m 17,3 km/h (3 Bft) 0 min 8,4 km/h (2 Bft)
31.03.2010 15:14 17,4 C 12,9 C 4,3 UV-I 2,2 C 39 % 46 % 63 % 998,4 hPa 0,0 l/m 16,5 km/h (3 Bft) 0 min 6,3 km/h (2 Bft)
31.03.2010 15:16 17,5 C 12,9 C 4,1 UV-I 1,9 C 39 % 45 % 54 % 998,4 hPa 0,0 l/m 16,9 km/h (3 Bft) 0 min 14,2 km/h (3 Bft)
31.03.2010 15:18 17,4 C 12,8 C 4,1 UV-I 1,4 C 39 % 46 % 40 % 998,4 hPa 0,0 l/m 16,5 km/h (3 Bft) 0 min 5,5 km/h (1 Bft)
31.03.2010 15:20 17,4 C 12,8 C 1,1 UV-I 0,8 C 39 % 45 % 23 % 998,4 hPa 0,0 l/m 17,3 km/h (3 Bft) 0 min 13,5 km/h (3 Bft)
31.03.2010 15:22 17,4 C 12,7 C 1,1 UV-I 0,5 C 39 % 46 % 14 % 998,4 hPa 0,0 l/m 17,3 km/h (3 Bft) 0 min 21,2 km/h (4 Bft)
31.03.2010 15:24 17,4 C 12,6 C 1,1 UV-I 0,1 C 39 % 46 % 3 % 998,4 hPa 0,0 l/m 18,5 km/h (3 Bft) 0 min 20,0 km/h (4 Bft)
31.03.2010 15:26 17,4 C 12,5 C 0,5 UV-I 0,0 C 39 % 45 % 0 % 998,4 hPa 0,0 l/m 18,5 km/h (3 Bft) 0 min 15,4 km/h (3 Bft)
31.03.2010 15:28 17,4 C 12,5 C 0,5 UV-I 0,0 C 39 % 46 % 0 % 998,4 hPa 0,0 l/m 17,7 km/h (3 Bft) 0 min 4,3 km/h (1 Bft)
31.03.2010 15:30 17,2 C 12,5 C 3,8 UV-I 0,0 C 39 % 46 % 0 % 998,4 hPa 0,0 l/m 18,1 km/h (3 Bft) 0 min 9,6 km/h (2 Bft)
31.03.2010 15:32 17,2 C 12,7 C 3,8 UV-I 0,3 C 39 % 46 % 9 % 997,3 hPa 0,0 l/m 17,7 km/h (3 Bft) 0 min 13,2 km/h (3 Bft)
31.03.2010 15:34 17,2 C 12,7 C 3,8 UV-I 1,2 C 39 % 47 % 34 % 997,3 hPa 0,0 l/m 16,5 km/h (3 Bft) 0 min 8,4 km/h (2 Bft)
31.03.2010 15:36 17,2 C 12,8 C 9,2 UV-I 2,3 C 39 % 47 % 66 % 997,3 hPa 0,0 l/m 15,3 km/h (3 Bft) 0 min 10,8 km/h (2 Bft)
31.03.2010 15:38 17,4 C 12,9 C 9,2 UV-I 2,8 C 39 % 47 % 80 % 997,3 hPa 0,0 l/m 15,7 km/h (3 Bft) 0 min 17,8 km/h (3 Bft)
31.03.2010 15:40 17,4 C 13,1 C 9,2 UV-I 3,1 C 39 % 46 % 89 % 997,3 hPa 0,0 l/m 15,7 km/h (3 Bft) 2 min 15,4 km/h (3 Bft)
31.03.2010 15:42 17,4 C 13,1 C 9,2 UV-I 3,1 C 40 % 45 % 89 % 997,3 hPa 0,0 l/m 16,5 km/h (3 Bft) 2 min 16,8 km/h (3 Bft)
31.03.2010 15:44 17,4 C 13,1 C 9,2 UV-I 2,8 C 40 % 43 % 80 % 997,3 hPa 0,0 l/m 18,1 km/h (3 Bft) 0 min 24,3 km/h (4 Bft)
31.03.2010 15:46 17,4 C 12,9 C 3,4 UV-I 2,4 C 40 % 44 % 69 % 997,3 hPa 0,0 l/m 17,7 km/h (3 Bft) 0 min 8,4 km/h (2 Bft)
31.03.2010 15:48 17,4 C 12,9 C 3,4 UV-I 1,6 C 39 % 44 % 46 % 997,3 hPa 0,0 l/m 18,5 km/h (3 Bft) 0 min 15,6 km/h (3 Bft)
31.03.2010 15:50 17,4 C 12,8 C 0,7 UV-I 1,3 C 39 % 44 % 37 % 997,3 hPa 0,0 l/m 17,7 km/h (3 Bft) 0 min 7,7 km/h (2 Bft)
31.03.2010 15:52 17,4 C 12,7 C 0,7 UV-I 0,5 C 39 % 45 % 14 % 997,1 hPa 0,0 l/m 18,1 km/h (3 Bft) 0 min 9,1 km/h (2 Bft)
31.03.2010 15:54 17,4 C 12,6 C 0,7 UV-I 0,2 C 39 % 45 % 6 % 997,1 hPa 0,0 l/m 17,7 km/h (3 Bft) 0 min 16,4 km/h (3 Bft)
31.03.2010 15:56 17,4 C 12,7 C 0,0 UV-I 0,0 C 39 % 45 % 0 % 997,1 hPa 0,0 l/m 17,3 km/h (3 Bft) 0 min 10,1 km/h (2 Bft)
31.03.2010 15:58 17,4 C 12,6 C 0,0 UV-I 0,0 C 39 % 45 % 0 % 997,1 hPa 0,0 l/m 18,1 km/h (3 Bft) 0 min 9,1 km/h (2 Bft)
31.03.2010 16:02 17,2 C 12,2 C 0,2 UV-I 0,0 C 39 % 51 % 0 % 997,1 hPa 0,0 l/m 18,5 km/h (3 Bft) 0 min 32,5 km/h (5 Bft)
31.03.2010 16:04 17,3 C 12,0 C 0,2 UV-I 0,0 C 39 % 52 % 0 % 997,1 hPa 0,0 l/m 17,7 km/h (3 Bft) 0 min 7,9 km/h (2 Bft)
31.03.2010 16:06 17,2 C 11,9 C 3,4 UV-I 0,0 C 39 % 54 % 0 % 997,1 hPa 0,0 l/m 16,5 km/h (3 Bft) 0 min 7,5 km/h (2 Bft)
31.03.2010 16:08 17,2 C 11,8 C 3,4 UV-I 0,0 C 40 % 54 % 0 % 997,1 hPa 0,0 l/m 16,1 km/h (3 Bft) 0 min 11,5 km/h (2 Bft)
31.03.2010 16:10 17,2 C 11,8 C 2,1 UV-I 0,0 C 40 % 55 % 0 % 997,1 hPa 0,0 l/m 14,9 km/h (3 Bft) 0 min 10,1 km/h (2 Bft)
31.03.2010 16:12 17,2 C 11,6 C 2,1 UV-I 0,0 C 40 % 55 % 0 % 997,0 hPa 0,0 l/m 12,8 km/h (3 Bft) 0 min 8,7 km/h (2 Bft)
31.03.2010 16:14 17,2 C 11,6 C 2,1 UV-I 0,0 C 40 % 54 % 0 % 997,0 hPa 0,0 l/m 13,3 km/h (3 Bft) 0 min 7,5 km/h (2 Bft)
31.03.2010 16:16 17,2 C 11,6 C 0,6 UV-I 0,0 C 40 % 54 % 0 % 997,0 hPa 0,0 l/m 15,3 km/h (3 Bft) 0 min 22,9 km/h (4 Bft)
31.03.2010 16:18 17,2 C 11,4 C 0,6 UV-I 0,0 C 40 % 53 % 0 % 997,0 hPa 0,0 l/m 16,5 km/h (3 Bft) 0 min 10,8 km/h (2 Bft)
31.03.2010 16:20 17,1 C 11,3 C 0,1 UV-I 0,0 C 40 % 54 % 0 % 997,0 hPa 0,0 l/m 16,9 km/h (3 Bft) 0 min 14,4 km/h (3 Bft)
31.03.2010 16:22 17,1 C 11,1 C 0,1 UV-I 0,0 C 40 % 55 % 0 % 997,0 hPa 0,0 l/m 18,1 km/h (3 Bft) 0 min 9,1 km/h (2 Bft)
31.03.2010 16:24 17,1 C 11,0 C 0,1 UV-I 0,0 C 40 % 57 % 0 % 997,0 hPa 0,1 l/m 18,1 km/h (3 Bft) 0 min 17,8 km/h (3 Bft)
31.03.2010 16:26 17,0 C 11,0 C 0,1 UV-I 0,0 C 40 % 57 % 0 % 997,0 hPa 0,0 l/m 18,5 km/h (3 Bft) 0 min 12,0 km/h (2 Bft)
31.03.2010 16:28 17,0 C 10,8 C 0,1 UV-I 0,0 C 40 % 58 % 0 % 997,0 hPa 0,1 l/m 17,7 km/h (3 Bft) 0 min 11,1 km/h (2 Bft)
31.03.2010 16:30 17,0 C 10,7 C 0,2 UV-I 0,0 C 40 % 59 % 0 % 997,0 hPa 0,0 l/m 18,5 km/h (3 Bft) 0 min 23,6 km/h (4 Bft)
31.03.2010 16:32 17,0 C 10,5 C 0,2 UV-I 0,0 C 40 % 61 % 0 % 997,7 hPa 0,0 l/m 19,3 km/h (3 Bft) 0 min 12,0 km/h (2 Bft)
31.03.2010 16:34 16,9 C 10,3 C 0,2 UV-I 0,0 C 41 % 61 % 0 % 997,7 hPa 0,0 l/m 20,9 km/h (4 Bft) 0 min 10,1 km/h (2 Bft)
31.03.2010 16:36 16,9 C 10,3 C 0,0 UV-I 0,0 C 41 % 61 % 0 % 997,7 hPa 0,0 l/m 20,1 km/h (4 Bft) 0 min 8,9 km/h (2 Bft)
31.03.2010 16:38 16,9 C 10,0 C 0,0 UV-I 0,0 C 41 % 62 % 0 % 997,7 hPa 0,0 l/m 20,1 km/h (4 Bft) 0 min 17,1 km/h (3 Bft)
31.03.2010 16:42 16,8 C 9,7 C 0,0 UV-I 0,0 C 41 % 64 % 0 % 997,7 hPa 0,0 l/m 18,5 km/h (3 Bft) 0 min 16,1 km/h (3 Bft)
31.03.2010 16:44 16,8 C 9,6 C 0,0 UV-I 0,0 C 41 % 67 % 0 % 997,7 hPa 0,1 l/m 17,7 km/h (3 Bft) 0 min 6,3 km/h (2 Bft)
31.03.2010 16:50 16,8 C 9,6 C 9,5 UV-I 0,0 C 42 % 68 % 0 % 997,7 hPa 0,1 l/m 15,3 km/h (3 Bft) 0 min 13,7 km/h (3 Bft)
31.03.2010 16:52 16,9 C 9,7 C 9,5 UV-I 0,6 C 42 % 68 % 17 % 997,5 hPa 0,0 l/m 14,1 km/h (3 Bft) 0 min 14,9 km/h (3 Bft)
31.03.2010 16:54 16,9 C 9,7 C 9,5 UV-I 1,6 C 42 % 68 % 46 % 997,5 hPa 0,0 l/m 12,8 km/h (3 Bft) 0 min 10,6 km/h (2 Bft)
31.03.2010 16:56 17,0 C 9,9 C 9,6 UV-I 1,9 C 42 % 67 % 54 % 997,5 hPa 0,0 l/m 13,7 km/h (3 Bft) 0 min 20,9 km/h (4 Bft)
31.03.2010 16:58 17,0 C 9,9 C 9,6 UV-I 2,0 C 42 % 66 % 57 % 997,5 hPa 0,0 l/m 14,9 km/h (3 Bft) 0 min 18,5 km/h (3 Bft)
31.03.2010 17:00 17,0 C 9,9 C 6,6 UV-I 2,0 C 42 % 65 % 57 % 997,5 hPa 0,0 l/m 14,1 km/h (3 Bft) 0 min 11,8 km/h (2 Bft)
31.03.2010 17:06 17,2 C 10,1 C 8,6 UV-I 3,2 C 42 % 65 % 91 % 997,5 hPa 0,0 l/m 14,9 km/h (3 Bft) 2 min 19,7 km/h (3 Bft)
31.03.2010 17:08 17,2 C 10,3 C 8,6 UV-I 3,4 C 42 % 65 % 97 % 997,5 hPa 0,0 l/m 14,1 km/h (3 Bft) 2 min 7,7 km/h (2 Bft)
31.03.2010 17:10 17,2 C 10,2 C 7,9 UV-I 3,7 C 42 % 64 % 100 % 997,5 hPa 0,0 l/m 13,3 km/h (3 Bft) 2 min 10,1 km/h (2 Bft)
31.03.2010 17:12 17,2 C 10,3 C 7,9 UV-I 3,7 C 42 % 63 % 100 % 997,9 hPa 0,0 l/m 14,1 km/h (3 Bft) 2 min 18,3 km/h (3 Bft)
31.03.2010 17:14 17,4 C 10,3 C 7,9 UV-I 3,9 C 42 % 63 % 100 % 997,9 hPa 0,0 l/m 14,1 km/h (3 Bft) 2 min 17,6 km/h (3 Bft)
31.03.2010 17:16 17,5 C 10,4 C 7,7 UV-I 3,9 C 42 % 63 % 100 % 997,9 hPa 0,0 l/m 14,5 km/h (3 Bft) 2 min 7,7 km/h (2 Bft)
31.03.2010 17:18 17,5 C 10,4 C 7,7 UV-I 3,9 C 42 % 64 % 100 % 997,9 hPa 0,0 l/m 14,5 km/h (3 Bft) 2 min 17,3 km/h (3 Bft)
31.03.2010 17:20 17,5 C 10,4 C 7,0 UV-I 3,9 C 42 % 63 % 100 % 997,9 hPa 0,0 l/m 15,3 km/h (3 Bft) 2 min 8,2 km/h (2 Bft)
31.03.2010 17:22 17,6 C 10,4 C 7,0 UV-I 3,8 C 42 % 63 % 100 % 997,9 hPa 0,0 l/m 14,9 km/h (3 Bft) 2 min 4,3 km/h (1 Bft)
31.03.2010 17:24 17,6 C 10,4 C 7,0 UV-I 3,0 C 42 % 63 % 86 % 997,9 hPa 0,0 l/m 15,7 km/h (3 Bft) 2 min 12,3 km/h (3 Bft)
31.03.2010 17:26 17,6 C 10,2 C 1,7 UV-I 2,1 C 42 % 63 % 60 % 997,9 hPa 0,0 l/m 15,7 km/h (3 Bft) 0 min 16,8 km/h (3 Bft)
31.03.2010 17:28 17,6 C 10,1 C 1,7 UV-I 1,5 C 42 % 63 % 43 % 997,9 hPa 0,0 l/m 15,7 km/h (3 Bft) 0 min 12,8 km/h (3 Bft)
31.03.2010 17:30 17,6 C 10,0 C 1,9 UV-I 1,2 C 42 % 64 % 34 % 997,9 hPa 0,0 l/m 14,9 km/h (3 Bft) 0 min 11,3 km/h (2 Bft)
31.03.2010 17:34 17,5 C 9,9 C 1,9 UV-I 0,4 C 42 % 65 % 11 % 997,8 hPa 0,0 l/m 14,5 km/h (3 Bft) 0 min 6,3 km/h (2 Bft)
31.03.2010 17:36 17,5 C 9,9 C 1,1 UV-I 0,3 C 42 % 65 % 9 % 997,8 hPa 0,0 l/m 12,8 km/h (3 Bft) 0 min 6,3 km/h (2 Bft)
31.03.2010 17:38 17,5 C 9,9 C 1,1 UV-I 0,0 C 42 % 65 % 0 % 997,8 hPa 0,0 l/m 12,0 km/h (2 Bft) 0 min 6,7 km/h (2 Bft)
31.03.2010 17:40 17,5 C 9,8 C 0,9 UV-I 0,0 C 42 % 65 % 0 % 997,8 hPa 0,0 l/m 11,2 km/h (2 Bft) 0 min 12,5 km/h (3 Bft)
31.03.2010 17:42 17,4 C 9,9 C 0,9 UV-I 0,0 C 42 % 65 % 0 % 997,8 hPa 0,0 l/m 9,6 km/h (2 Bft) 0 min 4,3 km/h (1 Bft)
31.03.2010 17:44 17,4 C 9,7 C 0,9 UV-I 0,0 C 42 % 65 % 0 % 997,8 hPa 0,0 l/m 9,6 km/h (2 Bft) 0 min 10,1 km/h (2 Bft)
31.03.2010 17:46 17,4 C 9,9 C 0,2 UV-I 0,0 C 42 % 66 % 0 % 997,8 hPa 0,0 l/m 10,8 km/h (2 Bft) 0 min 11,5 km/h (2 Bft)
31.03.2010 17:48 17,2 C 9,6 C 0,2 UV-I 0,0 C 42 % 66 % 0 % 997,8 hPa 0,0 l/m 15,3 km/h (3 Bft) 0 min 29,1 km/h (5 Bft)
31.03.2010 17:50 17,2 C 9,4 C 0,0 UV-I 0,0 C 42 % 67 % 0 % 997,8 hPa 0,0 l/m 18,5 km/h (3 Bft) 0 min 28,9 km/h (5 Bft)
31.03.2010 17:54 17,2 C 8,7 C 0,0 UV-I 0,0 C 42 % 69 % 0 % 998,8 hPa 0,1 l/m 24,5 km/h (4 Bft) 0 min 15,6 km/h (3 Bft)
31.03.2010 17:56 17,2 C 8,5 C 0,0 UV-I 0,0 C 42 % 69 % 0 % 998,8 hPa 0,0 l/m 24,5 km/h (4 Bft) 0 min 11,5 km/h (2 Bft)
31.03.2010 17:58 17,1 C 8,3 C 0,0 UV-I 0,0 C 42 % 69 % 0 % 998,8 hPa 0,0 l/m 24,5 km/h (4 Bft) 0 min 16,4 km/h (3 Bft)
31.03.2010 18:00 17,1 C 8,3 C 0,1 UV-I 0,0 C 42 % 70 % 0 % 998,8 hPa 0,1 l/m 19,7 km/h (3 Bft) 0 min 6,7 km/h (2 Bft)
31.03.2010 18:02 17,0 C 8,3 C 0,1 UV-I 0,0 C 42 % 70 % 0 % 998,8 hPa 0,0 l/m 17,7 km/h (3 Bft) 0 min 26,5 km/h (4 Bft)
31.03.2010 18:04 17,0 C 8,2 C 0,1 UV-I 0,0 C 42 % 69 % 0 % 998,8 hPa 0,0 l/m 16,9 km/h (3 Bft) 0 min 17,6 km/h (3 Bft)
31.03.2010 18:06 17,0 C 8,3 C 1,0 UV-I 0,0 C 42 % 68 % 0 % 998,8 hPa 0,0 l/m 17,3 km/h (3 Bft) 0 min 11,1 km/h (2 Bft)
31.03.2010 18:08 16,9 C 8,4 C 1,0 UV-I 0,0 C 43 % 69 % 0 % 998,8 hPa 0,0 l/m 16,1 km/h (3 Bft) 0 min 8,7 km/h (2 Bft)
31.03.2010 18:10 16,9 C 8,4 C 1,2 UV-I 0,0 C 43 % 68 % 0 % 998,8 hPa 0,0 l/m 16,5 km/h (3 Bft) 0 min 20,9 km/h (4 Bft)
31.03.2010 18:14 16,9 C 8,5 C 1,2 UV-I 0,0 C 43 % 67 % 0 % 998,1 hPa 0,0 l/m 16,1 km/h (3 Bft) 0 min 10,6 km/h (2 Bft)
31.03.2010 18:16 16,8 C 8,4 C 1,1 UV-I 0,0 C 43 % 68 % 0 % 998,1 hPa 0,0 l/m 15,3 km/h (3 Bft) 0 min 17,6 km/h (3 Bft)
31.03.2010 18:18 16,8 C 8,4 C 1,1 UV-I 0,0 C 43 % 68 % 0 % 998,1 hPa 0,0 l/m 17,3 km/h (3 Bft) 0 min 20,2 km/h (4 Bft)
31.03.2010 18:20 16,8 C 8,5 C 1,0 UV-I 0,0 C 43 % 68 % 0 % 998,1 hPa 0,0 l/m 17,3 km/h (3 Bft) 0 min 8,2 km/h (2 Bft)
31.03.2010 18:22 16,8 C 8,5 C 1,0 UV-I 0,0 C 43 % 68 % 0 % 998,1 hPa 0,0 l/m 16,1 km/h (3 Bft) 0 min 11,8 km/h (2 Bft)
31.03.2010 18:26 16,8 C 8,5 C 0,8 UV-I 0,0 C 43 % 68 % 0 % 998,1 hPa 0,0 l/m 15,7 km/h (3 Bft) 0 min 12,5 km/h (3 Bft)
31.03.2010 18:30 16,8 C 8,4 C 0,7 UV-I 0,0 C 43 % 68 % 0 % 998,1 hPa 0,0 l/m 14,5 km/h (3 Bft) 0 min 17,6 km/h (3 Bft)
31.03.2010 18:32 16,7 C 8,4 C 0,7 UV-I 0,0 C 43 % 69 % 0 % 997,9 hPa 0,0 l/m 14,5 km/h (3 Bft) 0 min 5,8 km/h (2 Bft)
31.03.2010 18:34 16,7 C 8,5 C 0,7 UV-I 0,0 C 43 % 68 % 0 % 997,9 hPa 0,0 l/m 13,7 km/h (3 Bft) 0 min 9,6 km/h (2 Bft)
31.03.2010 18:36 16,7 C 8,5 C 0,5 UV-I 0,0 C 43 % 68 % 0 % 997,9 hPa 0,0 l/m 14,1 km/h (3 Bft) 0 min 21,4 km/h (4 Bft)
31.03.2010 18:38 16,7 C 8,5 C 0,5 UV-I 0,0 C 43 % 68 % 0 % 997,9 hPa 0,0 l/m 13,7 km/h (3 Bft) 0 min 7,0 km/h (2 Bft)
31.03.2010 18:40 16,7 C 8,5 C 0,4 UV-I 0,0 C 43 % 68 % 0 % 997,9 hPa 0,0 l/m 14,5 km/h (3 Bft) 0 min 13,7 km/h (3 Bft)
31.03.2010 18:46 16,6 C 8,6 C 0,2 UV-I 0,0 C 43 % 67 % 0 % 997,9 hPa 0,0 l/m 16,1 km/h (3 Bft) 0 min 15,2 km/h (3 Bft)
31.03.2010 18:48 16,7 C 8,5 C 0,2 UV-I 0,0 C 43 % 67 % 0 % 997,9 hPa 0,0 l/m 15,7 km/h (3 Bft) 0 min 6,7 km/h (2 Bft)
31.03.2010 18:50 16,6 C 8,6 C 0,2 UV-I 0,0 C 43 % 67 % 0 % 997,9 hPa 0,0 l/m 14,1 km/h (3 Bft) 0 min 14,4 km/h (3 Bft)
31.03.2010 18:52 16,6 C 8,5 C 0,2 UV-I 0,0 C 43 % 67 % 0 % 998,1 hPa 0,0 l/m 12,4 km/h (3 Bft) 0 min 4,8 km/h (1 Bft)
31.03.2010 18:54 16,6 C 8,6 C 0,2 UV-I 0,0 C 43 % 67 % 0 % 998,1 hPa 0,0 l/m 12,4 km/h (3 Bft) 0 min 24,8 km/h (4 Bft)
31.03.2010 19:04 16,5 C 8,5 C 0,0 UV-I 0,0 C 43 % 67 % 0 % 998,1 hPa 0,0 l/m 12,0 km/h (2 Bft) 0 min 16,6 km/h (3 Bft)
31.03.2010 19:06 16,5 C 8,5 C 0,0 UV-I 0,0 C 43 % 67 % 0 % 998,1 hPa 0,0 l/m 10,4 km/h (2 Bft) 0 min 5,5 km/h (1 Bft)
31.03.2010 19:08 16,5 C 8,5 C 0,0 UV-I 0,0 C 43 % 67 % 0 % 998,1 hPa 0,0 l/m 10,4 km/h (2 Bft) 0 min 21,7 km/h (4 Bft)
31.03.2010 19:10 16,5 C 8,4 C 0,0 UV-I 0,0 C 43 % 67 % 0 % 998,1 hPa 0,0 l/m 10,0 km/h (2 Bft) 0 min 18,0 km/h (3 Bft)
31.03.2010 19:12 16,5 C 8,5 C 0,0 UV-I 0,0 C 43 % 67 % 0 % 998,3 hPa 0,0 l/m 10,8 km/h (2 Bft) 0 min 15,4 km/h (3 Bft)
31.03.2010 19:14 16,4 C 8,4 C 0,0 UV-I 0,0 C 43 % 68 % 0 % 998,3 hPa 0,0 l/m 11,6 km/h (2 Bft) 0 min 14,7 km/h (3 Bft)
31.03.2010 19:16 16,4 C 8,4 C 0,0 UV-I 0,0 C 43 % 68 % 0 % 998,3 hPa 0,0 l/m 12,0 km/h (2 Bft) 0 min 8,2 km/h (2 Bft)
31.03.2010 19:18 16,4 C 8,4 C 0,0 UV-I 0,0 C 43 % 68 % 0 % 998,3 hPa 0,0 l/m 13,7 km/h (3 Bft) 0 min 14,2 km/h (3 Bft)
31.03.2010 19:20 16,4 C 8,4 C 0,0 UV-I 0,0 C 43 % 68 % 0 % 998,3 hPa 0,0 l/m 14,1 km/h (3 Bft) 0 min 10,6 km/h (2 Bft)
31.03.2010 19:22 16,4 C 8,4 C 0,0 UV-I 0,0 C 43 % 68 % 0 % 998,3 hPa 0,0 l/m 14,1 km/h (3 Bft) 0 min 5,8 km/h (2 Bft)
31.03.2010 19:24 16,4 C 8,4 C 0,0 UV-I 0,0 C 43 % 69 % 0 % 998,3 hPa 0,0 l/m 13,3 km/h (3 Bft) 0 min 3,1 km/h (1 Bft)
31.03.2010 19:26 16,4 C 8,4 C 0,0 UV-I 0,0 C 43 % 69 % 0 % 998,3 hPa 0,0 l/m 11,6 km/h (2 Bft) 0 min 5,8 km/h (2 Bft)
31.03.2010 19:30 16,2 C 8,3 C 0,0 UV-I 0,0 C 43 % 69 % 0 % 998,3 hPa 0,0 l/m 10,4 km/h (2 Bft) 0 min 8,2 km/h (2 Bft)
31.03.2010 19:32 16,3 C 8,3 C 0,0 UV-I 0,0 C 43 % 70 % 0 % 998,6 hPa 0,0 l/m 10,0 km/h (2 Bft) 0 min 7,5 km/h (2 Bft)
31.03.2010 19:34 16,3 C 8,3 C 0,0 UV-I 0,0 C 43 % 70 % 0 % 998,6 hPa 0,0 l/m 10,8 km/h (2 Bft) 0 min 17,1 km/h (3 Bft)
31.03.2010 19:36 16,3 C 8,3 C 0,0 UV-I 0,0 C 43 % 70 % 0 % 998,6 hPa 0,0 l/m 12,0 km/h (2 Bft) 0 min 13,0 km/h (3 Bft)
31.03.2010 19:38 16,3 C 8,3 C 0,0 UV-I 0,0 C 43 % 70 % 0 % 998,6 hPa 0,0 l/m 13,7 km/h (3 Bft) 0 min 12,8 km/h (3 Bft)
31.03.2010 19:40 16,2 C 8,3 C 0,0 UV-I 0,0 C 43 % 70 % 0 % 998,6 hPa 0,0 l/m 13,3 km/h (3 Bft) 0 min 9,4 km/h (2 Bft)
31.03.2010 19:42 16,2 C 8,3 C 0,0 UV-I 0,0 C 43 % 70 % 0 % 998,6 hPa 0,0 l/m 13,3 km/h (3 Bft) 0 min 8,7 km/h (2 Bft)
31.03.2010 19:44 16,2 C 8,1 C 0,0 UV-I 0,0 C 43 % 69 % 0 % 998,6 hPa 0,0 l/m 13,3 km/h (3 Bft) 0 min 14,2 km/h (3 Bft)
31.03.2010 19:46 16,2 C 8,2 C 0,0 UV-I 0,0 C 43 % 69 % 0 % 998,6 hPa 0,0 l/m 13,7 km/h (3 Bft) 0 min 7,9 km/h (2 Bft)
31.03.2010 19:48 16,2 C 8,1 C 0,0 UV-I 0,0 C 43 % 69 % 0 % 998,6 hPa 0,0 l/m 13,3 km/h (3 Bft) 0 min 12,5 km/h (3 Bft)
31.03.2010 19:52 16,2 C 8,1 C 0,0 UV-I 0,0 C 43 % 69 % 0 % 998,6 hPa 0,0 l/m 12,8 km/h (3 Bft) 0 min 10,1 km/h (2 Bft)
31.03.2010 19:56 16,1 C 8,0 C 0,0 UV-I 0,0 C 43 % 69 % 0 % 998,6 hPa 0,0 l/m 12,0 km/h (2 Bft) 0 min 11,3 km/h (2 Bft)
31.03.2010 19:58 16,1 C 8,0 C 0,0 UV-I 0,0 C 43 % 68 % 0 % 998,6 hPa 0,0 l/m 11,6 km/h (2 Bft) 0 min 4,8 km/h (1 Bft)
31.03.2010 20:00 16,1 C 8,0 C 0,0 UV-I 0,0 C 43 % 68 % 0 % 998,6 hPa 0,0 l/m 10,4 km/h (2 Bft) 0 min 2,6 km/h (1 Bft)
31.03.2010 20:02 16,1 C 8,0 C 0,0 UV-I 0,0 C 43 % 69 % 0 % 998,6 hPa 0,0 l/m 9,6 km/h (2 Bft) 0 min 6,7 km/h (2 Bft)
31.03.2010 20:04 15,9 C 8,0 C 0,0 UV-I 0,0 C 43 % 69 % 0 % 998,6 hPa 0,0 l/m 8,8 km/h (2 Bft) 0 min 8,2 km/h (2 Bft)
31.03.2010 20:06 16,0 C 8,0 C 0,0 UV-I 0,0 C 43 % 68 % 0 % 998,6 hPa 0,0 l/m 8,8 km/h (2 Bft) 0 min 9,4 km/h (2 Bft)
31.03.2010 20:10 16,0 C 7,8 C 0,0 UV-I 0,0 C 43 % 68 % 0 % 998,6 hPa 0,0 l/m 8,8 km/h (2 Bft) 0 min 9,1 km/h (2 Bft)
31.03.2010 20:12 16,0 C 7,9 C 0,0 UV-I 0,0 C 43 % 68 % 0 % 998,6 hPa 0,0 l/m 9,2 km/h (2 Bft) 0 min 4,1 km/h (1 Bft)
31.03.2010 20:16 15,9 C 7,7 C 0,0 UV-I 0,0 C 43 % 69 % 0 % 998,6 hPa 0,0 l/m 10,4 km/h (2 Bft) 0 min 8,9 km/h (2 Bft)
31.03.2010 20:20 15,8 C 7,6 C 0,0 UV-I 0,0 C 44 % 69 % 0 % 998,6 hPa 0,0 l/m 9,2 km/h (2 Bft) 0 min 7,7 km/h (2 Bft)
31.03.2010 20:24 15,8 C 7,6 C 0,0 UV-I 0,0 C 44 % 69 % 0 % 998,6 hPa 0,0 l/m 9,6 km/h (2 Bft) 0 min 14,0 km/h (3 Bft)
31.03.2010 20:26 15,8 C 7,6 C 0,0 UV-I 0,0 C 44 % 69 % 0 % 998,6 hPa 0,0 l/m 10,4 km/h (2 Bft) 0 min 9,1 km/h (2 Bft)
31.03.2010 20:32 15,6 C 7,7 C 0,0 UV-I 0,0 C 44 % 69 % 0 % 999,1 hPa 0,0 l/m 9,2 km/h (2 Bft) 0 min 11,8 km/h (2 Bft)
31.03.2010 20:34 15,6 C 7,7 C 0,0 UV-I 0,0 C 44 % 69 % 0 % 999,1 hPa 0,0 l/m 8,0 km/h (2 Bft) 0 min 2,6 km/h (1 Bft)
31.03.2010 20:36 15,6 C 7,7 C 0,0 UV-I 0,0 C 44 % 69 % 0 % 999,1 hPa 0,0 l/m 8,0 km/h (2 Bft) 0 min 4,8 km/h (1 Bft)
31.03.2010 20:40 15,7 C 7,6 C 0,0 UV-I 0,0 C 44 % 71 % 0 % 999,1 hPa 0,0 l/m 7,6 km/h (2 Bft) 0 min 3,4 km/h (1 Bft)
31.03.2010 20:42 15,7 C 7,5 C 0,0 UV-I 0,0 C 44 % 72 % 0 % 999,1 hPa 0,0 l/m 9,6 km/h (2 Bft) 0 min 8,2 km/h (2 Bft)
31.03.2010 20:44 15,6 C 7,5 C 0,0 UV-I 0,0 C 44 % 73 % 0 % 999,1 hPa 0,1 l/m 11,2 km/h (2 Bft) 0 min 20,9 km/h (4 Bft)
31.03.2010 20:46 15,6 C 7,3 C 0,0 UV-I 0,0 C 44 % 74 % 0 % 999,1 hPa 0,0 l/m 14,1 km/h (3 Bft) 0 min 19,7 km/h (3 Bft)
31.03.2010 20:48 15,6 C 7,3 C 0,0 UV-I 0,0 C 45 % 75 % 0 % 999,1 hPa 0,2 l/m 14,9 km/h (3 Bft) 0 min 8,2 km/h (2 Bft)
31.03.2010 20:50 15,6 C 7,1 C 0,0 UV-I 0,0 C 45 % 76 % 0 % 999,1 hPa 0,1 l/m 14,1 km/h (3 Bft) 0 min 6,5 km/h (2 Bft)
31.03.2010 20:52 15,6 C 7,1 C 0,0 UV-I 0,0 C 45 % 77 % 0 % 999,7 hPa 0,0 l/m 12,8 km/h (3 Bft) 0 min 7,2 km/h (2 Bft)
31.03.2010 20:54 15,6 C 6,9 C 0,0 UV-I 0,0 C 45 % 77 % 0 % 999,7 hPa 0,1 l/m 11,6 km/h (2 Bft) 0 min 12,8 km/h (3 Bft)
31.03.2010 20:56 15,6 C 6,8 C 0,0 UV-I 0,0 C 45 % 77 % 0 % 999,7 hPa 0,0 l/m 9,6 km/h (2 Bft) 0 min 4,3 km/h (1 Bft)
31.03.2010 20:58 15,6 C 6,9 C 0,0 UV-I 0,0 C 45 % 77 % 0 % 999,7 hPa 0,0 l/m 9,2 km/h (2 Bft) 0 min 7,5 km/h (2 Bft)
31.03.2010 21:00 15,6 C 6,7 C 0,0 UV-I 0,0 C 46 % 78 % 0 % 999,7 hPa 0,0 l/m 9,6 km/h (2 Bft) 0 min 14,2 km/h (3 Bft)
31.03.2010 21:02 15,6 C 6,7 C 0,0 UV-I 0,0 C 46 % 78 % 0 % 999,7 hPa 0,0 l/m 10,0 km/h (2 Bft) 0 min 6,3 km/h (2 Bft)
31.03.2010 21:04 15,6 C 6,7 C 0,0 UV-I 0,0 C 46 % 78 % 0 % 999,7 hPa 0,0 l/m 10,0 km/h (2 Bft) 0 min 8,9 km/h (2 Bft)
31.03.2010 21:06 15,6 C 6,6 C 0,0 UV-I 0,0 C 46 % 78 % 0 % 999,7 hPa 0,0 l/m 10,4 km/h (2 Bft) 0 min 11,5 km/h (2 Bft)
31.03.2010 21:08 15,6 C 6,7 C 0,0 UV-I 0,0 C 46 % 78 % 0 % 999,7 hPa 0,0 l/m 10,4 km/h (2 Bft) 0 min 6,7 km/h (2 Bft)
31.03.2010 21:10 15,4 C 6,7 C 0,0 UV-I 0,0 C 46 % 78 % 0 % 999,7 hPa 0,0 l/m 10,8 km/h (2 Bft) 0 min 5,1 km/h (1 Bft)
31.03.2010 21:12 15,4 C 6,6 C 0,0 UV-I 0,0 C 46 % 78 % 0 % 999,8 hPa 0,0 l/m 10,4 km/h (2 Bft) 0 min 17,8 km/h (3 Bft)
31.03.2010 21:18 15,5 C 6,5 C 0,0 UV-I 0,0 C 46 % 78 % 0 % 999,8 hPa 0,0 l/m 10,8 km/h (2 Bft) 0 min 10,8 km/h (2 Bft)
31.03.2010 21:20 15,5 C 6,5 C 0,0 UV-I 0,0 C 46 % 78 % 0 % 999,8 hPa 0,0 l/m 10,0 km/h (2 Bft) 0 min 6,7 km/h (2 Bft)
31.03.2010 21:22 15,3 C 6,4 C 0,0 UV-I 0,0 C 46 % 79 % 0 % 999,8 hPa 0,0 l/m 10,0 km/h (2 Bft) 0 min 7,2 km/h (2 Bft)
31.03.2010 21:24 15,3 C 6,4 C 0,0 UV-I 0,0 C 46 % 79 % 0 % 999,8 hPa 0,0 l/m 9,2 km/h (2 Bft) 0 min 4,8 km/h (1 Bft)
31.03.2010 21:28 15,4 C 6,4 C 0,0 UV-I 0,0 C 46 % 79 % 0 % 999,8 hPa 0,0 l/m 6,8 km/h (2 Bft) 0 min 3,8 km/h (1 Bft)
31.03.2010 21:30 15,4 C 6,4 C 0,0 UV-I 0,0 C 46 % 79 % 0 % 999,8 hPa 0,0 l/m 5,6 km/h (1 Bft) 0 min 3,4 km/h (1 Bft)
31.03.2010 21:32 15,4 C 6,3 C 0,0 UV-I 0,0 C 46 % 78 % 0 % 999,8 hPa 0,0 l/m 6,0 km/h (2 Bft) 0 min 7,7 km/h (2 Bft)
31.03.2010 21:34 15,4 C 6,3 C 0,0 UV-I 0,0 C 46 % 78 % 0 % 999,8 hPa 0,0 l/m 5,6 km/h (1 Bft) 0 min 4,3 km/h (1 Bft)
31.03.2010 21:36 15,4 C 6,2 C 0,0 UV-I 0,0 C 46 % 78 % 0 % 999,8 hPa 0,0 l/m 5,2 km/h (1 Bft) 0 min 6,5 km/h (2 Bft)
31.03.2010 21:38 15,4 C 6,3 C 0,0 UV-I 0,0 C 46 % 79 % 0 % 999,8 hPa 0,0 l/m 6,0 km/h (2 Bft) 0 min 7,2 km/h (2 Bft)
31.03.2010 21:40 15,4 C 6,3 C 0,0 UV-I 0,0 C 46 % 79 % 0 % 999,8 hPa 0,0 l/m 6,0 km/h (2 Bft) 0 min 4,3 km/h (1 Bft)
31.03.2010 21:44 15,4 C 6,2 C 0,0 UV-I 0,0 C 46 % 79 % 0 % 999,8 hPa 0,0 l/m 5,2 km/h (1 Bft) 0 min 9,1 km/h (2 Bft)
31.03.2010 21:46 15,2 C 6,1 C 0,0 UV-I 0,0 C 46 % 79 % 0 % 999,8 hPa 0,0 l/m 5,6 km/h (1 Bft) 0 min 5,5 km/h (1 Bft)
31.03.2010 21:50 15,4 C 6,1 C 0,0 UV-I 0,0 C 46 % 79 % 0 % 999,8 hPa 0,0 l/m 6,0 km/h (2 Bft) 0 min 4,8 km/h (1 Bft)
31.03.2010 21:53 15,2 C 6,0 C 0,0 UV-I 0,0 C 46 % 80 % 0 % 999,8 hPa 0,0 l/m 6,4 km/h (2 Bft) 0 min 5,8 km/h (2 Bft)
31.03.2010 21:58 15,2 C 6,0 C 0,0 UV-I 0,0 C 46 % 80 % 0 % 999,8 hPa 0,0 l/m 5,6 km/h (1 Bft) 0 min 4,3 km/h (1 Bft)
31.03.2010 22:02 15,3 C 6,1 C 0,0 UV-I 0,0 C 46 % 80 % 0 % 999,8 hPa 0,0 l/m 6,4 km/h (2 Bft) 0 min 8,4 km/h (2 Bft)
31.03.2010 22:04 15,3 C 6,1 C 0,0 UV-I 0,0 C 46 % 80 % 0 % 999,8 hPa 0,0 l/m 7,2 km/h (2 Bft) 0 min 6,5 km/h (2 Bft)
31.03.2010 22:06 15,2 C 6,0 C 0,0 UV-I 0,0 C 46 % 80 % 0 % 999,8 hPa 0,0 l/m 8,0 km/h (2 Bft) 0 min 4,8 km/h (1 Bft)
31.03.2010 22:08 15,3 C 6,0 C 0,0 UV-I 0,0 C 46 % 80 % 0 % 999,8 hPa 0,0 l/m 7,6 km/h (2 Bft) 0 min 5,1 km/h (1 Bft)
31.03.2010 22:10 15,3 C 6,0 C 0,0 UV-I 0,0 C 46 % 80 % 0 % 999,8 hPa 0,0 l/m 8,0 km/h (2 Bft) 0 min 3,4 km/h (1 Bft)
31.03.2010 22:12 15,1 C 6,1 C 0,0 UV-I 0,0 C 47 % 80 % 0 % 999,8 hPa 0,0 l/m 9,2 km/h (2 Bft) 0 min 15,2 km/h (3 Bft)
31.03.2010 22:14 15,1 C 6,0 C 0,0 UV-I 0,0 C 46 % 80 % 0 % 999,8 hPa 0,0 l/m 8,4 km/h (2 Bft) 0 min 4,1 km/h (1 Bft)
31.03.2010 22:16 15,1 C 6,0 C 0,0 UV-I 0,0 C 47 % 80 % 0 % 999,8 hPa 0,0 l/m 7,2 km/h (2 Bft) 0 min 3,4 km/h (1 Bft)
31.03.2010 22:18 15,3 C 6,0 C 0,0 UV-I 0,0 C 46 % 80 % 0 % 999,8 hPa 0,0 l/m 8,0 km/h (2 Bft) 0 min 5,5 km/h (1 Bft)
31.03.2010 22:20 15,1 C 6,1 C 0,0 UV-I 0,0 C 46 % 79 % 0 % 999,8 hPa 0,0 l/m 7,2 km/h (2 Bft) 0 min 5,3 km/h (1 Bft)
31.03.2010 22:22 15,1 C 6,1 C 0,0 UV-I 0,0 C 46 % 79 % 0 % 999,8 hPa 0,0 l/m 7,2 km/h (2 Bft) 0 min 10,8 km/h (2 Bft)
31.03.2010 22:24 15,1 C 6,1 C 0,0 UV-I 0,0 C 46 % 79 % 0 % 999,8 hPa 0,0 l/m 8,0 km/h (2 Bft) 0 min 13,7 km/h (3 Bft)
31.03.2010 22:26 15,1 C 6,1 C 0,0 UV-I 0,0 C 46 % 79 % 0 % 999,8 hPa 0,0 l/m 9,6 km/h (2 Bft) 0 min 9,9 km/h (2 Bft)
31.03.2010 22:28 15,1 C 6,1 C 0,0 UV-I 0,0 C 46 % 79 % 0 % 999,8 hPa 0,0 l/m 10,8 km/h (2 Bft) 0 min 13,7 km/h (3 Bft)
31.03.2010 22:30 15,1 C 6,1 C 0,0 UV-I 0,0 C 46 % 78 % 0 % 999,8 hPa 0,0 l/m 11,2 km/h (2 Bft) 0 min 13,2 km/h (3 Bft)
31.03.2010 22:32 15,1 C 6,0 C 0,0 UV-I 0,0 C 46 % 78 % 0 % 1000,3 hPa 0,0 l/m 12,0 km/h (2 Bft) 0 min 9,1 km/h (2 Bft)
31.03.2010 22:34 15,1 C 6,0 C 0,0 UV-I 0,0 C 46 % 78 % 0 % 1000,3 hPa 0,0 l/m 13,3 km/h (3 Bft) 0 min 5,1 km/h (1 Bft)
31.03.2010 22:36 15,1 C 6,0 C 0,0 UV-I 0,0 C 46 % 78 % 0 % 1000,3 hPa 0,0 l/m 12,4 km/h (3 Bft) 0 min 11,5 km/h (2 Bft)
31.03.2010 22:38 15,2 C 6,0 C 0,0 UV-I 0,0 C 46 % 78 % 0 % 1000,3 hPa 0,0 l/m 11,2 km/h (2 Bft) 0 min 2,9 km/h (1 Bft)
31.03.2010 22:40 15,2 C 6,0 C 0,0 UV-I 0,0 C 46 % 77 % 0 % 1000,3 hPa 0,0 l/m 11,2 km/h (2 Bft) 0 min 8,7 km/h (2 Bft)
31.03.2010 22:42 15,2 C 6,1 C 0,0 UV-I 0,0 C 46 % 77 % 0 % 1000,3 hPa 0,0 l/m 11,2 km/h (2 Bft) 0 min 8,4 km/h (2 Bft)
31.03.2010 22:44 15,2 C 6,1 C 0,0 UV-I 0,0 C 46 % 77 % 0 % 1000,3 hPa 0,0 l/m 10,8 km/h (2 Bft) 0 min 11,3 km/h (2 Bft)
31.03.2010 22:46 15,2 C 6,0 C 0,0 UV-I 0,0 C 46 % 77 % 0 % 1000,3 hPa 0,0 l/m 10,8 km/h (2 Bft) 0 min 7,0 km/h (2 Bft)
31.03.2010 22:48 15,2 C 6,0 C 0,0 UV-I 0,0 C 46 % 77 % 0 % 1000,3 hPa 0,0 l/m 11,2 km/h (2 Bft) 0 min 6,7 km/h (2 Bft)
31.03.2010 22:50 15,2 C 6,0 C 0,0 UV-I 0,0 C 46 % 77 % 0 % 1000,3 hPa 0,0 l/m 12,0 km/h (2 Bft) 0 min 9,6 km/h (2 Bft)
31.03.2010 22:52 15,2 C 6,0 C 0,0 UV-I 0,0 C 46 % 77 % 0 % 1000,3 hPa 0,0 l/m 11,6 km/h (2 Bft) 0 min 7,9 km/h (2 Bft)
31.03.2010 22:54 15,2 C 6,0 C 0,0 UV-I 0,0 C 46 % 77 % 0 % 1000,3 hPa 0,0 l/m 11,2 km/h (2 Bft) 0 min 11,1 km/h (2 Bft)
31.03.2010 22:56 15,2 C 6,0 C 0,0 UV-I 0,0 C 46 % 77 % 0 % 1000,3 hPa 0,0 l/m 11,2 km/h (2 Bft) 0 min 6,0 km/h (2 Bft)
31.03.2010 22:58 15,2 C 5,9 C 0,0 UV-I 0,0 C 46 % 77 % 0 % 1000,3 hPa 0,0 l/m 10,8 km/h (2 Bft) 0 min 9,4 km/h (2 Bft)
31.03.2010 23:00 15,2 C 5,9 C 0,0 UV-I 0,0 C 46 % 77 % 0 % 1000,3 hPa 0,0 l/m 10,0 km/h (2 Bft) 0 min 9,9 km/h (2 Bft)
31.03.2010 23:02 15,2 C 5,9 C 0,0 UV-I 0,0 C 46 % 78 % 0 % 1000,3 hPa 0,0 l/m 10,4 km/h (2 Bft) 0 min 10,6 km/h (2 Bft)
31.03.2010 23:04 15,1 C 5,9 C 0,0 UV-I 0,0 C 46 % 78 % 0 % 1000,3 hPa 0,0 l/m 10,8 km/h (2 Bft) 0 min 11,1 km/h (2 Bft)
31.03.2010 23:06 15,1 C 5,8 C 0,0 UV-I 0,0 C 46 % 78 % 0 % 1000,3 hPa 0,0 l/m 10,8 km/h (2 Bft) 0 min 17,6 km/h (3 Bft)
31.03.2010 23:08 15,1 C 5,8 C 0,0 UV-I 0,0 C 46 % 78 % 0 % 1000,3 hPa 0,0 l/m 10,4 km/h (2 Bft) 0 min 4,6 km/h (1 Bft)
31.03.2010 23:10 15,1 C 5,9 C 0,0 UV-I 0,0 C 46 % 78 % 0 % 1000,3 hPa 0,0 l/m 9,6 km/h (2 Bft) 0 min 2,6 km/h (1 Bft)
31.03.2010 23:12 15,1 C 5,8 C 0,0 UV-I 0,0 C 46 % 78 % 0 % 1000,4 hPa 0,0 l/m 9,2 km/h (2 Bft) 0 min 7,7 km/h (2 Bft)
31.03.2010 23:14 15,1 C 5,7 C 0,0 UV-I 0,0 C 46 % 78 % 0 % 1000,4 hPa 0,0 l/m 8,8 km/h (2 Bft) 0 min 5,8 km/h (2 Bft)
31.03.2010 23:16 15,1 C 5,7 C 0,0 UV-I 0,0 C 46 % 78 % 0 % 1000,4 hPa 0,0 l/m 8,0 km/h (2 Bft) 0 min 5,8 km/h (2 Bft)
31.03.2010 23:18 15,1 C 5,6 C 0,0 UV-I 0,0 C 46 % 78 % 0 % 1000,4 hPa 0,0 l/m 7,2 km/h (2 Bft) 0 min 7,9 km/h (2 Bft)
31.03.2010 23:20 15,1 C 5,6 C 0,0 UV-I 0,0 C 46 % 78 % 0 % 1000,4 hPa 0,0 l/m 8,0 km/h (2 Bft) 0 min 8,7 km/h (2 Bft)
31.03.2010 23:22 15,1 C 5,6 C 0,0 UV-I 0,0 C 46 % 78 % 0 % 1000,4 hPa 0,0 l/m 10,0 km/h (2 Bft) 0 min 14,2 km/h (3 Bft)
31.03.2010 23:26 15,1 C 5,7 C 0,0 UV-I 0,0 C 46 % 78 % 0 % 1000,4 hPa 0,0 l/m 11,2 km/h (2 Bft) 0 min 16,1 km/h (3 Bft)
31.03.2010 23:28 14,9 C 5,6 C 0,0 UV-I 0,0 C 46 % 78 % 0 % 1000,4 hPa 0,0 l/m 11,6 km/h (2 Bft) 0 min 15,4 km/h (3 Bft)
31.03.2010 23:30 15,1 C 5,6 C 0,0 UV-I 0,0 C 46 % 78 % 0 % 1000,4 hPa 0,0 l/m 10,8 km/h (2 Bft) 0 min 12,5 km/h (3 Bft)
31.03.2010 23:32 14,9 C 5,6 C 0,0 UV-I 0,0 C 46 % 78 % 0 % 1000,7 hPa 0,0 l/m 11,2 km/h (2 Bft) 0 min 5,5 km/h (1 Bft)
31.03.2010 23:34 15,0 C 5,6 C 0,0 UV-I 0,0 C 46 % 78 % 0 % 1000,7 hPa 0,0 l/m 10,8 km/h (2 Bft) 0 min 4,6 km/h (1 Bft)
31.03.2010 23:36 15,0 C 5,5 C 0,0 UV-I 0,0 C 46 % 78 % 0 % 1000,7 hPa 0,0 l/m 9,6 km/h (2 Bft) 0 min 8,9 km/h (2 Bft)
31.03.2010 23:38 15,0 C 5,5 C 0,0 UV-I 0,0 C 46 % 78 % 0 % 1000,7 hPa 0,0 l/m 9,2 km/h (2 Bft) 0 min 7,7 km/h (2 Bft)
31.03.2010 23:40 15,0 C 5,5 C 0,0 UV-I 0,0 C 46 % 78 % 0 % 1000,7 hPa 0,0 l/m 8,4 km/h (2 Bft) 0 min 8,2 km/h (2 Bft)
31.03.2010 23:42 15,0 C 5,5 C 0,0 UV-I 0,0 C 46 % 78 % 0 % 1000,7 hPa 0,0 l/m 8,4 km/h (2 Bft) 0 min 5,5 km/h (1 Bft)
31.03.2010 23:44 15,0 C 5,4 C 0,0 UV-I 0,0 C 46 % 78 % 0 % 1000,7 hPa 0,0 l/m 7,6 km/h (2 Bft) 0 min 7,7 km/h (2 Bft)
31.03.2010 23:46 15,0 C 5,5 C 0,0 UV-I 0,0 C 46 % 78 % 0 % 1000,7 hPa 0,0 l/m 7,6 km/h (2 Bft) 0 min 9,4 km/h (2 Bft)
31.03.2010 23:48 15,0 C 5,5 C 0,0 UV-I 0,0 C 46 % 78 % 0 % 1000,7 hPa 0,0 l/m 7,6 km/h (2 Bft) 0 min 7,7 km/h (2 Bft)
31.03.2010 23:50 15,0 C 5,5 C 0,0 UV-I 0,0 C 46 % 78 % 0 % 1000,7 hPa 0,0 l/m 8,4 km/h (2 Bft) 0 min 13,7 km/h (3 Bft)
31.03.2010 23:52 15,0 C 5,5 C 0,0 UV-I 0,0 C 46 % 79 % 0 % 1000,7 hPa 0,0 l/m 8,0 km/h (2 Bft) 0 min 2,6 km/h (1 Bft)
31.03.2010 23:54 15,0 C 5,5 C 0,0 UV-I 0,0 C 46 % 78 % 0 % 1000,7 hPa 0,0 l/m 8,4 km/h (2 Bft) 0 min 8,2 km/h (2 Bft)
31.03.2010 23:56 14,8 C 5,5 C 0,0 UV-I 0,0 C 46 % 79 % 0 % 1000,7 hPa 0,0 l/m 8,0 km/h (2 Bft) 0 min 6,0 km/h (2 Bft)
31.03.2010 23:58 14,8 C 5,4 C 0,0 UV-I 0,0 C 46 % 79 % 0 % 1000,7 hPa 0,0 l/m 8,8 km/h (2 Bft) 0 min 5,1 km/h (1 Bft)
_ Min-Zeit 23:56 02:34 00:00 00:00 14:50 15:44 00:00 00:00 - 01:26 - 01:36
Minimum _ 14,8 C 5,4 C 0,0 UV-I 0,0 C 39 % 43 % 0 % 996,8 hPa - 3,2 km/h (1 Bft) - 0,0 km/h (0 Bft)
_ Max-Zeit 17:22 15:08 12:30 12:52 00:00 00:14 10:44 23:32 20:48 13:14 10:10 14:34
Maximum _ 17,6 C 13,1 C 11,4 UV-I 5,4 C 51 % 84 % 100 % 1000,7 hPa 0,2 l/m 24,9 km/h
N (4 Bft)
2 min 41,1 km/h
N-NW (6 Bft)
Durchschnitt _ 15,9 C 8,0 C 1,5 UV-I 0,7 C 46 % 70 % 17 % 997,8 hPa #1,1 l/m 12,0 km/h (2 Bft) #2:08 h 10,9 km/h (2 Bft)
© 2012 W. Hausmann